Time,TemperatureF,DewpointF,PressureIn,WindDirection,WindDirectionDegrees,WindSpeedMPH,WindSpeedGustMPH,Humidity,HourlyPrecipIn,Conditions,Clouds,dailyrainin,SoftwareType,DateUTC
2013-02-12 00:00:00,31.5,25.4,30.05,West,260,8.9,11.5,78,0.00,RA,,0.00,WeatherDisplay:10.37,2013-02-12 05:00:00,
2013-02-12 00:05:00,31.5,25.4,30.05,West,278,8.5,15.0,78,0.00,RA,,0.00,WeatherDisplay:10.37,2013-02-12 05:05:00,
2013-02-12 00:10:00,31.5,25.4,30.05,West,264,9.8,18.4,78,0.00,CLR,,0.00,WeatherDisplay:10.37,2013-02-12 05:10:00,
2013-02-12 00:15:00,31.5,25.1,30.05,West,259,10.7,17.0,77,0.00,CLR,,0.00,WeatherDisplay:10.37,2013-02-12 05:15:00,
2013-02-12 00:20:00,31.5,25.4,30.05,West,263,9.4,15.0,78,0.00,CLR,,0.00,WeatherDisplay:10.37,2013-02-12 05:20:00,
2013-02-12 00:25:00,31.5,25.4,30.06,WSW,257,12.2,18.4,78,0.00,CLR,,0.00,WeatherDisplay:10.37,2013-02-12 05:25:00,
2013-02-12 00:30:00,31.5,25.1,30.06,West,267,13.8,17.3,77,0.00,CLR,,0.00,WeatherDisplay:10.37,2013-02-12 05:30:00,
2013-02-12 00:31:00,31.5,25.1,30.06,WSW,240,13.5,17.3,77,0.00,CLR,,0.00,WeatherDisplay:10.37,2013-02-12 05:31:00,
2013-02-12 00:35:00,31.4,25.0,30.06,WSW,250,11.2,15.0,77,0.00,CLR,,0.00,WeatherDisplay:10.37,2013-02-12 05:35:00,
2013-02-12 00:36:00,31.4,25.0,30.06,West,262,10.5,12.7,77,0.00,CLR,,0.00,WeatherDisplay:10.37,2013-02-12 05:36:00,
2013-02-12 00:40:00,31.4,25.3,30.06,WSW,244,11.9,13.8,78,0.00,CLR,,0.00,WeatherDisplay:10.37,2013-02-12 05:40:00,
2013-02-12 00:41:00,31.4,25.3,30.06,WSW,245,11.4,15.0,78,0.00,CLR,,0.00,WeatherDisplay:10.37,2013-02-12 05:41:00,
2013-02-12 00:45:00,31.3,25.2,30.06,West,274,9.3,18.4,78,0.00,CLR,,0.00,WeatherDisplay:10.37,2013-02-12 05:45:00,
2013-02-12 00:46:00,31.3,25.2,30.06,West,273,8.8,11.5,78,0.00,CLR,,0.00,WeatherDisplay:10.37,2013-02-12 05:46:00,
2013-02-12 00:50:00,31.3,25.2,30.06,WSW,249,7.1,11.5,78,0.00,CLR,,0.00,WeatherDisplay:10.37,2013-02-12 05:50:00,
2013-02-12 00:51:00,31.3,25.2,30.06,West,261,6.0,10.4,78,0.00,CLR,,0.00,WeatherDisplay:10.37,2013-02-12 05:51:00,
2013-02-12 00:52:00,31.3,25.2,30.06,WNW,291,7.4,9.2,78,0.00,CLR,,0.00,WeatherDisplay:10.37,2013-02-12 05:52:00,
2013-02-12 00:55:00,31.3,25.2,30.07,West,267,6.3,13.8,78,0.00,CLR,,0.00,WeatherDisplay:10.37,2013-02-12 05:55:00,
2013-02-12 00:56:00,31.3,25.2,30.07,WSW,251,9.2,12.7,78,0.00,CLR,,0.00,WeatherDisplay:10.37,2013-02-12 05:56:00,
2013-02-12 00:57:00,31.3,25.2,30.07,West,269,8.9,11.5,78,0.00,CLR,,0.00,WeatherDisplay:10.37,2013-02-12 05:57:00,
2013-02-12 01:01:00,31.3,25.2,30.07,WNW,284,12.9,18.4,78,0.00,CLR,,0.00,WeatherDisplay:10.37,2013-02-12 06:01:00,
2013-02-12 01:02:00,31.3,25.2,30.07,West,266,8.5,11.5,78,0.00,CLR,,0.00,WeatherDisplay:10.37,2013-02-12 06:02:00,
2013-02-12 01:06:00,31.3,25.5,30.07,WSW,255,7.0,10.4,79,0.00,CLR,,0.00,WeatherDisplay:10.37,2013-02-12 06:06:00,
2013-02-12 01:07:00,31.3,25.5,30.07,West,275,7.8,11.5,79,0.00,CLR,,0.00,WeatherDisplay:10.37,2013-02-12 06:07:00,
2013-02-12 01:11:00,31.3,25.2,30.07,WNW,285,7.9,11.5,78,0.00,CLR,,0.00,WeatherDisplay:10.37,2013-02-12 06:11:00,
2013-02-12 01:12:00,31.3,25.2,30.07,WSW,252,9.0,10.4,78,0.00,CLR,,0.00,WeatherDisplay:10.37,2013-02-12 06:12:00,
2013-02-12 01:16:00,31.2,25.4,30.07,WSW,255,9.9,13.8,79,0.00,CLR,,0.00,WeatherDisplay:10.37,2013-02-12 06:16:00,
2013-02-12 01:17:00,31.2,25.4,30.07,SW,233,9.9,13.8,79,0.00,CLR,,0.00,WeatherDisplay:10.37,2013-02-12 06:17:00,
2013-02-12 01:21:00,31.2,25.4,30.07,WSW,244,10.0,16.1,79,0.00,CLR,,0.00,WeatherDisplay:10.37,2013-02-12 06:21:00,
2013-02-12 01:22:00,31.2,25.4,30.07,West,260,10.2,15.0,79,0.00,CLR,,0.00,WeatherDisplay:10.37,2013-02-12 06:22:00,
2013-02-12 01:23:00,31.2,25.1,30.07,West,260,10.6,15.0,78,0.00,CLR,,0.00,WeatherDisplay:10.37,2013-02-12 06:23:00,
2013-02-12 01:26:00,31.2,25.1,30.07,West,261,10.6,12.7,78,0.00,CLR,,0.00,WeatherDisplay:10.37,2013-02-12 06:26:00,
2013-02-12 01:27:00,31.2,25.4,30.07,WSW,252,11.2,12.7,79,0.00,CLR,,0.00,WeatherDisplay:10.37,2013-02-12 06:27:00,
2013-02-12 01:28:00,31.2,25.1,30.07,West,264,13.5,19.6,78,0.00,CLR,,0.00,WeatherDisplay:10.37,2013-02-12 06:28:00,
2013-02-12 01:31:00,31.2,25.1,30.07,WSW,257,11.0,15.0,78,0.00,CLR,,0.00,WeatherDisplay:10.37,2013-02-12 06:31:00,
2013-02-12 01:32:00,31.2,25.4,30.07,WSW,252,11.5,15.0,79,0.00,CLR,,0.00,WeatherDisplay:10.37,2013-02-12 06:32:00,
2013-02-12 01:34:00,31.2,25.4,30.07,West,260,10.6,13.8,79,0.00,CLR,,0.00,WeatherDisplay:10.37,2013-02-12 06:34:00,
2013-02-12 01:36:00,31.2,25.4,30.07,WSW,256,8.5,12.0,79,0.00,CLR,,0.00,WeatherDisplay:10.37,2013-02-12 06:36:00,
2013-02-12 01:37:00,31.2,25.4,30.07,WSW,246,13.0,17.3,79,0.00,CLR,,0.00,WeatherDisplay:10.37,2013-02-12 06:37:00,
2013-02-12 01:39:00,31.2,25.4,30.07,West,259,12.0,14.0,79,0.00,CLR,,0.00,WeatherDisplay:10.37,2013-02-12 06:39:00,
2013-02-12 01:41:00,31.1,25.3,30.07,WSW,245,11.2,16.1,79,0.00,CLR,,0.00,WeatherDisplay:10.37,2013-02-12 06:41:00,
2013-02-12 01:43:00,31.1,25.3,30.08,WSW,252,7.1,12.7,79,0.00,CLR,,0.00,WeatherDisplay:10.37,2013-02-12 06:43:00,
2013-02-12 01:44:00,31.1,25.3,30.07,WSW,250,9.2,11.5,79,0.00,CLR,,0.00,WeatherDisplay:10.37,2013-02-12 06:44:00,
2013-02-12 01:46:00,31.1,25.3,30.07,WSW,242,10.8,13.0,79,0.00,CLR,,0.00,WeatherDisplay:10.37,2013-02-12 06:46:00,
2013-02-12 01:48:00,31.1,25.3,30.08,West,262,13.3,17.0,79,0.00,CLR,,0.00,WeatherDisplay:10.37,2013-02-12 06:48:00,
2013-02-12 01:50:00,31.1,25.0,30.08,West,263,7.9,17.3,78,0.00,CLR,,0.00,WeatherDisplay:10.37,2013-02-12 06:50:00,
2013-02-12 01:51:00,31.1,25.3,30.08,WSW,251,10.4,13.0,79,0.00,CLR,,0.00,WeatherDisplay:10.37,2013-02-12 06:51:00,
2013-02-12 01:52:00,31.1,25.3,30.08,WSW,242,11.9,16.1,79,0.00,CLR,,0.00,WeatherDisplay:10.37,2013-02-12 06:52:00,
2013-02-12 01:54:00,31.1,25.3,30.08,WSW,255,10.2,13.8,79,0.00,CLR,,0.00,WeatherDisplay:10.37,2013-02-12 06:54:00,
2013-02-12 01:55:00,31.1,25.3,30.08,WSW,257,8.5,15.0,79,0.00,CLR,,0.00,WeatherDisplay:10.37,2013-02-12 06:55:00,
2013-02-12 01:57:00,31.1,25.3,30.08,West,259,9.3,12.0,79,0.00,CLR,,0.00,WeatherDisplay:10.37,2013-02-12 06:57:00,
2013-02-12 01:59:00,31.1,25.3,30.08,WSW,256,7.4,10.4,79,0.00,CLR,,0.00,WeatherDisplay:10.37,2013-02-12 06:59:00,
2013-02-12 02:00:00,31.1,25.3,30.08,WNW,284,7.5,10.4,79,0.00,CLR,,0.00,WeatherDisplay:10.37,2013-02-12 07:00:00,
2013-02-12 02:02:00,31.0,24.9,30.08,West,277,9.3,13.8,78,0.00,CLR,,0.00,WeatherDisplay:10.37,2013-02-12 07:02:00,
2013-02-12 02:04:00,31.0,24.9,30.08,WNW,294,10.4,12.7,78,0.00,CLR,,0.00,WeatherDisplay:10.37,2013-02-12 07:04:00,
2013-02-12 02:05:00,31.0,24.9,30.08,WNW,297,9.8,16.1,78,0.00,CLR,,0.00,WeatherDisplay:10.37,2013-02-12 07:05:00,
2013-02-12 02:07:00,31.0,24.9,30.08,WNW,288,9.4,17.3,78,0.00,CLR,,0.00,WeatherDisplay:10.37,2013-02-12 07:07:00,
2013-02-12 02:10:00,31.0,24.9,30.08,West,271,9.0,17.0,78,0.00,CLR,,0.00,WeatherDisplay:10.37,2013-02-12 07:10:00,
2013-02-12 02:11:00,31.0,24.9,30.08,West,276,4.4,8.1,78,0.00,CLR,,0.00,WeatherDisplay:10.37,2013-02-12 07:11:00,
2013-02-12 02:12:00,31.0,25.2,30.08,West,269,5.3,9.2,79,0.00,CLR,,0.00,WeatherDisplay:10.37,2013-02-12 07:12:00,
2013-02-12 02:15:00,31.0,24.9,30.08,WSW,254,7.2,11.5,78,0.00,CLR,,0.00,WeatherDisplay:10.37,2013-02-12 07:15:00,
2013-02-12 02:16:00,30.9,24.8,30.08,West,259,7.4,11.5,78,0.00,CLR,,0.00,WeatherDisplay:10.37,2013-02-12 07:16:00,
2013-02-12 02:17:00,31.0,24.9,30.08,West,273,10.2,12.7,78,0.00,CLR,,0.00,WeatherDisplay:10.37,2013-02-12 07:17:00,
2013-02-12 02:20:00,31.0,24.9,30.08,WSW,243,8.8,19.6,78,0.00,CLR,,0.00,WeatherDisplay:10.37,2013-02-12 07:20:00,
2013-02-12 02:21:00,31.0,24.9,30.08,WNW,286,9.1,19.6,78,0.00,CLR,,0.00,WeatherDisplay:10.37,2013-02-12 07:21:00,
2013-02-12 02:22:00,31.0,24.9,30.08,WNW,290,9.3,11.5,78,0.00,CLR,,0.00,WeatherDisplay:10.37,2013-02-12 07:22:00,
2013-02-12 02:25:00,31.0,24.9,30.08,WSW,256,9.9,15.0,78,0.00,CLR,,0.00,WeatherDisplay:10.37,2013-02-12 07:25:00,
2013-02-12 02:26:00,31.0,24.9,30.09,West,266,6.9,10.4,78,0.00,CLR,,0.00,WeatherDisplay:10.37,2013-02-12 07:26:00,
2013-02-12 02:27:00,31.0,25.2,30.09,West,274,6.8,10.4,79,0.00,CLR,,0.00,WeatherDisplay:10.37,2013-02-12 07:27:00,
2013-02-12 02:30:00,31.0,24.9,30.09,West,266,8.3,11.5,78,0.00,CLR,,0.00,WeatherDisplay:10.37,2013-02-12 07:30:00,
2013-02-12 02:31:00,31.0,24.9,30.09,West,273,7.0,11.5,78,0.00,CLR,,0.00,WeatherDisplay:10.37,2013-02-12 07:31:00,
2013-02-12 02:32:00,31.0,25.2,30.09,WSW,258,5.8,13.8,79,0.00,CLR,,0.00,WeatherDisplay:10.37,2013-02-12 07:32:00,
2013-02-12 02:35:00,31.0,24.9,30.09,West,271,9.7,13.8,78,0.00,CLR,,0.00,WeatherDisplay:10.37,2013-02-12 07:35:00,
2013-02-12 02:36:00,31.0,24.9,30.09,WSW,255,12.6,14.0,78,0.00,CLR,,0.00,WeatherDisplay:10.37,2013-02-12 07:36:00,
2013-02-12 02:37:00,31.0,24.9,30.09,WNW,286,11.0,19.6,78,0.00,CLR,,0.00,WeatherDisplay:10.37,2013-02-12 07:37:00,
2013-02-12 02:40:00,30.9,24.8,30.09,West,265,11.0,15.0,78,0.00,CLR,,0.00,WeatherDisplay:10.37,2013-02-12 07:40:00,
2013-02-12 02:41:00,30.9,24.8,30.09,WSW,247,10.0,16.1,78,0.00,CLR,,0.00,WeatherDisplay:10.37,2013-02-12 07:41:00,
2013-02-12 02:42:00,30.9,24.8,30.10,WSW,240,5.6,12.7,78,0.00,CLR,,0.00,WeatherDisplay:10.37,2013-02-12 07:42:00,
2013-02-12 02:43:00,30.9,25.2,30.10,West,263,5.6,8.1,79,0.00,CLR,,0.00,WeatherDisplay:10.37,2013-02-12 07:43:00,
2013-02-12 02:45:00,30.9,25.2,30.10,West,261,8.9,16.1,79,0.00,CLR,,0.00,WeatherDisplay:10.37,2013-02-12 07:45:00,
2013-02-12 02:47:00,31.0,25.2,30.10,West,279,7.4,11.5,79,0.00,CLR,,0.00,WeatherDisplay:10.37,2013-02-12 07:47:00,
2013-02-12 02:48:00,31.0,25.2,30.10,West,269,9.1,16.1,79,0.00,CLR,,0.00,WeatherDisplay:10.37,2013-02-12 07:48:00,
2013-02-12 02:50:00,31.0,24.9,30.10,WSW,257,9.2,13.0,78,0.00,CLR,,0.00,WeatherDisplay:10.37,2013-02-12 07:50:00,
2013-02-12 02:52:00,31.0,25.2,30.10,WSW,255,9.0,12.7,79,0.00,CLR,,0.00,WeatherDisplay:10.37,2013-02-12 07:52:00,
2013-02-12 02:53:00,31.0,25.2,30.10,West,270,7.6,11.5,79,0.00,CLR,,0.00,WeatherDisplay:10.37,2013-02-12 07:53:00,
2013-02-12 02:56:00,30.9,24.8,30.10,WSW,241,8.0,13.8,78,0.00,CLR,,0.00,WeatherDisplay:10.37,2013-02-12 07:56:00,
2013-02-12 02:57:00,30.9,24.8,30.10,WSW,254,10.2,12.7,78,0.00,CLR,,0.00,WeatherDisplay:10.37,2013-02-12 07:57:00,
2013-02-12 02:58:00,30.9,24.8,30.10,WNW,300,8.1,11.5,78,0.00,CLR,,0.00,WeatherDisplay:10.37,2013-02-12 07:58:00,
2013-02-12 03:01:00,30.8,24.7,30.10,WNW,300,7.9,12.0,78,0.00,CLR,,0.00,WeatherDisplay:10.37,2013-02-12 08:01:00,
2013-02-12 03:02:00,30.8,24.7,30.10,West,259,5.3,11.5,78,0.00,CLR,,0.00,WeatherDisplay:10.37,2013-02-12 08:02:00,
2013-02-12 03:03:00,30.8,24.7,30.10,WNW,302,5.0,6.9,78,0.00,CLR,,0.00,WeatherDisplay:10.37,2013-02-12 08:03:00,
2013-02-12 03:04:00,30.8,25.1,30.10,West,260,5.3,5.8,79,0.00,CLR,,0.00,WeatherDisplay:10.37,2013-02-12 08:04:00,
2013-02-12 03:06:00,30.8,25.1,30.10,WSW,245,4.9,10.0,79,0.00,CLR,,0.00,WeatherDisplay:10.37,2013-02-12 08:06:00,
2013-02-12 03:08:00,30.8,25.1,30.10,West,273,5.9,8.1,79,0.00,CLR,,0.00,WeatherDisplay:10.37,2013-02-12 08:08:00,
2013-02-12 03:09:00,30.8,24.7,30.10,West,280,4.8,9.2,78,0.00,CLR,,0.00,WeatherDisplay:10.37,2013-02-12 08:09:00,
2013-02-12 03:12:00,30.8,25.1,30.10,WSW,249,5.9,9.0,79,0.00,CLR,,0.00,WeatherDisplay:10.37,2013-02-12 08:12:00,
2013-02-12 03:13:00,30.8,25.1,30.10,WNW,291,6.3,10.4,79,0.00,CLR,,0.00,WeatherDisplay:10.37,2013-02-12 08:13:00,
2013-02-12 03:14:00,30.8,25.1,30.10,West,265,5.3,10.4,79,0.00,CLR,,0.00,WeatherDisplay:10.37,2013-02-12 08:14:00,
2013-02-12 03:17:00,30.8,25.1,30.10,WNW,283,5.0,8.1,79,0.00,CLR,,0.00,WeatherDisplay:10.37,2013-02-12 08:17:00,
2013-02-12 03:18:00,30.8,25.1,30.10,WNW,288,6.6,9.2,79,0.00,CLR,,0.00,WeatherDisplay:10.37,2013-02-12 08:18:00,
2013-02-12 03:19:00,30.8,25.1,30.10,West,272,6.2,9.2,79,0.00,CLR,,0.00,WeatherDisplay:10.37,2013-02-12 08:19:00,
2013-02-12 03:22:00,30.8,25.1,30.10,WSW,243,5.3,9.2,79,0.00,CLR,,0.00,WeatherDisplay:10.37,2013-02-12 08:22:00,
2013-02-12 03:23:00,30.8,25.1,30.10,WSW,256,5.1,8.0,79,0.00,CLR,,0.00,WeatherDisplay:10.37,2013-02-12 08:23:00,
2013-02-12 03:24:00,30.8,25.1,30.10,West,264,5.5,9.2,79,0.00,CLR,,0.00,WeatherDisplay:10.37,2013-02-12 08:24:00,
2013-02-12 03:27:00,30.8,25.1,30.10,West,264,7.2,10.4,79,0.00,CLR,,0.00,WeatherDisplay:10.37,2013-02-12 08:27:00,
2013-02-12 03:29:00,30.7,25.3,30.10,West,260,4.0,9.0,80,0.00,CLR,,0.00,WeatherDisplay:10.37,2013-02-12 08:29:00,
2013-02-12 03:30:00,30.7,25.3,30.10,West,272,5.0,12.0,80,0.00,CLR,,0.00,WeatherDisplay:10.37,2013-02-12 08:30:00,
2013-02-12 03:32:00,30.7,25.3,30.10,WSW,253,5.4,8.0,80,0.00,CLR,,0.00,WeatherDisplay:10.37,2013-02-12 08:32:00,
2013-02-12 03:34:00,30.7,25.3,30.11,WNW,287,5.8,13.0,80,0.00,CLR,,0.00,WeatherDisplay:10.37,2013-02-12 08:34:00,
2013-02-12 03:35:00,30.7,25.3,30.11,West,275,6.0,13.0,80,0.00,CLR,,0.00,WeatherDisplay:10.37,2013-02-12 08:35:00,
2013-02-12 03:37:00,30.8,25.4,30.11,WSW,248,4.8,6.9,80,0.00,CLR,,0.00,WeatherDisplay:10.37,2013-02-12 08:37:00,
2013-02-12 03:39:00,30.8,25.4,30.11,West,271,4.5,9.2,80,0.00,CLR,,0.00,WeatherDisplay:10.37,2013-02-12 08:39:00,
2013-02-12 03:40:00,30.7,25.3,30.11,WSW,238,2.8,9.2,80,0.00,CLR,,0.00,WeatherDisplay:10.37,2013-02-12 08:40:00,
2013-02-12 03:42:00,30.8,25.4,30.11,West,261,4.9,9.2,80,0.00,CLR,,0.00,WeatherDisplay:10.37,2013-02-12 08:42:00,
2013-02-12 03:44:00,30.7,25.3,30.11,West,275,6.3,10.4,80,0.00,CLR,,0.00,WeatherDisplay:10.37,2013-02-12 08:44:00,
2013-02-12 03:45:00,30.7,25.3,30.11,WSW,257,6.0,10.0,80,0.00,CLR,,0.00,WeatherDisplay:10.37,2013-02-12 08:45:00,
2013-02-12 03:47:00,30.7,25.0,30.11,WNW,282,9.3,12.7,79,0.00,CLR,,0.00,WeatherDisplay:10.37,2013-02-12 08:47:00,
2013-02-12 03:49:00,30.6,24.9,30.11,West,261,7.9,11.5,79,0.00,CLR,,0.00,WeatherDisplay:10.37,2013-02-12 08:49:00,
2013-02-12 03:50:00,30.6,24.9,30.11,West,276,8.0,11.5,79,0.00,CLR,,0.00,WeatherDisplay:10.37,2013-02-12 08:50:00,
2013-02-12 03:52:00,30.6,25.2,30.11,West,269,5.1,6.9,80,0.00,CLR,,0.00,WeatherDisplay:10.37,2013-02-12 08:52:00,
2013-02-12 03:54:00,30.6,25.2,30.11,WSW,258,2.9,5.0,80,0.00,CLR,,0.00,WeatherDisplay:10.37,2013-02-12 08:54:00,
2013-02-12 03:55:00,30.6,25.2,30.11,West,263,3.0,6.0,80,0.00,CLR,,0.00,WeatherDisplay:10.37,2013-02-12 08:55:00,
2013-02-12 03:57:00,30.6,25.2,30.11,West,271,5.0,8.1,80,0.00,CLR,,0.00,WeatherDisplay:10.37,2013-02-12 08:57:00,
2013-02-12 03:59:00,30.6,25.2,30.11,NW,305,5.6,10.4,80,0.00,CLR,,0.00,WeatherDisplay:10.37,2013-02-12 08:59:00,
2013-02-12 04:00:00,30.6,25.2,30.11,West,263,5.2,6.9,80,0.00,CLR,,0.00,WeatherDisplay:10.37,2013-02-12 09:00:00,
2013-02-12 04:03:00,30.6,25.2,30.11,West,278,4.6,7.0,80,0.00,CLR,,0.00,WeatherDisplay:10.37,2013-02-12 09:03:00,
2013-02-12 04:04:00,30.6,25.2,30.11,West,276,6.4,6.9,80,0.00,CLR,,0.00,WeatherDisplay:10.37,2013-02-12 09:04:00,
2013-02-12 04:05:00,30.6,25.2,30.11,WNW,283,6.4,8.1,80,0.00,CLR,,0.00,WeatherDisplay:10.37,2013-02-12 09:05:00,
2013-02-12 04:08:00,30.5,25.1,30.11,WNW,286,5.3,8.1,80,0.00,CLR,,0.00,WeatherDisplay:10.37,2013-02-12 09:08:00,
2013-02-12 04:09:00,30.5,25.1,30.11,West,269,3.7,6.9,80,0.00,CLR,,0.00,WeatherDisplay:10.37,2013-02-12 09:09:00,
2013-02-12 04:10:00,30.5,25.1,30.11,WSW,247,3.3,5.0,80,0.00,CLR,,0.00,WeatherDisplay:10.37,2013-02-12 09:10:00,
2013-02-12 04:13:00,30.5,25.1,30.11,West,261,6.8,8.1,80,0.00,CLR,,0.00,WeatherDisplay:10.37,2013-02-12 09:13:00,
2013-02-12 04:14:00,30.5,25.4,30.11,West,260,3.6,9.2,81,0.00,CLR,,0.00,WeatherDisplay:10.37,2013-02-12 09:14:00,
2013-02-12 04:15:00,30.5,25.4,30.11,West,265,3.7,5.8,81,0.00,CLR,,0.00,WeatherDisplay:10.37,2013-02-12 09:15:00,
2013-02-12 04:18:00,30.5,25.4,30.11,West,275,8.8,11.5,81,0.00,CLR,,0.00,WeatherDisplay:10.37,2013-02-12 09:18:00,
2013-02-12 04:20:00,30.5,25.1,30.11,WSW,250,7.7,10.4,80,0.00,CLR,,0.00,WeatherDisplay:10.37,2013-02-12 09:20:00,
2013-02-12 04:21:00,30.5,25.4,30.11,WSW,252,4.9,7.0,81,0.00,CLR,,0.00,WeatherDisplay:10.37,2013-02-12 09:21:00,
2013-02-12 04:23:00,30.5,25.4,30.11,West,275,5.3,6.9,81,0.00,CLR,,0.00,WeatherDisplay:10.37,2013-02-12 09:23:00,
2013-02-12 04:25:00,30.5,25.4,30.11,West,266,5.7,8.1,81,0.00,CLR,,0.00,WeatherDisplay:10.37,2013-02-12 09:25:00,
2013-02-12 04:26:00,30.6,25.5,30.11,WSW,248,5.4,8.1,81,0.00,CLR,,0.00,WeatherDisplay:10.37,2013-02-12 09:26:00,
2013-02-12 04:28:00,30.6,25.5,30.11,West,274,6.0,11.5,81,0.00,CLR,,0.00,WeatherDisplay:10.37,2013-02-12 09:28:00,
2013-02-12 04:30:00,30.6,25.2,30.11,West,263,5.8,9.2,80,0.00,CLR,,0.00,WeatherDisplay:10.37,2013-02-12 09:30:00,
2013-02-12 04:31:00,30.6,25.2,30.11,WNW,293,6.5,9.2,80,0.00,CLR,,0.00,WeatherDisplay:10.37,2013-02-12 09:31:00,
2013-02-12 04:34:00,30.5,25.1,30.12,West,266,5.5,8.1,80,0.00,CLR,,0.00,WeatherDisplay:10.37,2013-02-12 09:34:00,
2013-02-12 04:35:00,30.5,25.4,30.11,West,259,5.5,11.5,81,0.00,CLR,,0.00,WeatherDisplay:10.37,2013-02-12 09:35:00,
2013-02-12 04:36:00,30.5,25.4,30.11,West,275,7.4,8.0,81,0.00,CLR,,0.00,WeatherDisplay:10.37,2013-02-12 09:36:00,
2013-02-12 04:39:00,30.4,25.3,30.11,West,275,3.5,4.6,81,0.00,CLR,,0.00,WeatherDisplay:10.37,2013-02-12 09:39:00,
2013-02-12 04:40:00,30.5,25.4,30.11,WNW,283,2.8,5.0,81,0.00,CLR,,0.00,WeatherDisplay:10.37,2013-02-12 09:40:00,
2013-02-12 04:41:00,30.5,25.4,30.11,West,280,5.9,7.0,81,0.00,CLR,,0.00,WeatherDisplay:10.37,2013-02-12 09:41:00,
2013-02-12 04:42:00,30.5,25.4,30.11,West,268,6.4,7.0,81,0.00,CLR,,0.00,WeatherDisplay:10.37,2013-02-12 09:42:00,
2013-02-12 04:44:00,30.5,25.4,30.12,West,261,5.3,8.0,81,0.00,CLR,,0.00,WeatherDisplay:10.37,2013-02-12 09:44:00,
2013-02-12 04:45:00,30.5,25.4,30.12,West,267,5.4,9.2,81,0.00,CLR,,0.00,WeatherDisplay:10.37,2013-02-12 09:45:00,
2013-02-12 04:47:00,30.4,25.3,30.12,West,260,5.2,5.8,81,0.00,CLR,,0.00,WeatherDisplay:10.37,2013-02-12 09:47:00,
2013-02-12 04:49:00,30.4,25.3,30.12,West,277,6.3,11.5,81,0.00,CLR,,0.00,WeatherDisplay:10.37,2013-02-12 09:49:00,
2013-02-12 04:50:00,30.4,25.3,30.12,West,280,5.7,9.2,81,0.00,CLR,,0.00,WeatherDisplay:10.37,2013-02-12 09:50:00,
2013-02-12 04:52:00,30.4,25.3,30.12,West,272,4.8,9.2,81,0.00,CLR,,0.00,WeatherDisplay:10.37,2013-02-12 09:52:00,
2013-02-12 04:55:00,30.4,25.3,30.12,West,269,5.6,8.1,81,0.00,CLR,,0.00,WeatherDisplay:10.37,2013-02-12 09:55:00,
2013-02-12 04:57:00,30.4,25.3,30.12,West,271,6.7,11.5,81,0.00,CLR,,0.00,WeatherDisplay:10.37,2013-02-12 09:57:00,
2013-02-12 05:00:00,30.3,25.5,30.12,WSW,252,4.9,8.1,82,0.00,CLR,,0.00,WeatherDisplay:10.37,2013-02-12 10:00:00,
2013-02-12 05:02:00,30.3,25.5,30.12,West,263,8.8,11.5,82,0.00,CLR,,0.00,WeatherDisplay:10.37,2013-02-12 10:02:00,
2013-02-12 05:05:00,30.3,25.5,30.12,WNW,283,5.3,12.7,82,0.00,CLR,,0.00,WeatherDisplay:10.37,2013-02-12 10:05:00,
2013-02-12 05:07:00,30.3,25.5,30.12,WSW,243,9.1,10.4,82,0.00,CLR,,0.00,WeatherDisplay:10.37,2013-02-12 10:07:00,
2013-02-12 05:08:00,30.2,25.4,30.12,WNW,284,8.4,10.4,82,0.00,CLR,,0.00,WeatherDisplay:10.37,2013-02-12 10:08:00,
2013-02-12 05:10:00,30.3,25.5,30.12,WSW,248,6.6,10.0,82,0.00,CLR,,0.00,WeatherDisplay:10.37,2013-02-12 10:10:00,
2013-02-12 05:11:00,30.3,25.5,30.12,WSW,252,9.6,12.7,82,0.00,CLR,,0.00,WeatherDisplay:10.37,2013-02-12 10:11:00,
2013-02-12 05:12:00,30.2,25.4,30.12,WSW,249,8.6,11.5,82,0.00,CLR,,0.00,WeatherDisplay:10.37,2013-02-12 10:12:00,
2013-02-12 05:13:00,30.2,25.4,30.12,WSW,240,6.7,11.5,82,0.00,CLR,,0.00,WeatherDisplay:10.37,2013-02-12 10:13:00,
2013-02-12 05:15:00,30.2,25.4,30.12,WSW,252,8.6,10.4,82,0.00,CLR,,0.00,WeatherDisplay:10.37,2013-02-12 10:15:00,
2013-02-12 05:16:00,30.2,25.4,30.12,WSW,249,8.4,11.5,82,0.00,CLR,,0.00,WeatherDisplay:10.37,2013-02-12 10:16:00,
2013-02-12 05:18:00,30.2,25.7,30.12,SW,236,4.1,8.0,83,0.00,CLR,,0.00,WeatherDisplay:10.37,2013-02-12 10:18:00,
2013-02-12 05:21:00,30.2,25.4,30.12,West,281,5.5,8.1,82,0.00,CLR,,0.00,WeatherDisplay:10.37,2013-02-12 10:21:00,
2013-02-12 05:23:00,30.2,25.4,30.13,WSW,253,8.8,11.5,82,0.00,CLR,,0.00,WeatherDisplay:10.37,2013-02-12 10:23:00,
2013-02-12 05:26:00,30.2,25.4,30.13,SW,233,5.2,11.5,82,0.00,CLR,,0.00,WeatherDisplay:10.37,2013-02-12 10:26:00,
2013-02-12 05:28:00,30.2,25.7,30.13,West,277,5.7,8.1,83,0.00,CLR,,0.00,WeatherDisplay:10.37,2013-02-12 10:28:00,
2013-02-12 05:29:00,30.2,25.7,30.13,SW,229,6.3,9.2,83,0.00,CLR,,0.00,WeatherDisplay:10.37,2013-02-12 10:29:00,
2013-02-12 05:31:00,30.2,25.4,30.13,WNW,301,3.3,5.8,82,0.00,CLR,,0.00,WeatherDisplay:10.37,2013-02-12 10:31:00,
2013-02-12 05:33:00,30.1,25.3,30.13,WSW,244,6.2,9.2,82,0.00,CLR,,0.00,WeatherDisplay:10.37,2013-02-12 10:33:00,
2013-02-12 05:34:00,30.1,25.6,30.13,West,262,7.5,9.2,83,0.00,CLR,,0.00,WeatherDisplay:10.37,2013-02-12 10:34:00,
2013-02-12 05:36:00,30.1,25.6,30.13,West,259,9.8,12.7,83,0.00,CLR,,0.00,WeatherDisplay:10.37,2013-02-12 10:36:00,
2013-02-12 05:38:00,30.1,25.3,30.13,WSW,257,5.5,9.0,82,0.00,CLR,,0.00,WeatherDisplay:10.37,2013-02-12 10:38:00,
2013-02-12 05:39:00,30.1,25.3,30.13,West,265,8.0,11.5,82,0.00,CLR,,0.00,WeatherDisplay:10.37,2013-02-12 10:39:00,
2013-02-12 05:41:00,30.1,25.3,30.13,West,261,9.8,14.0,82,0.00,CLR,,0.00,WeatherDisplay:10.37,2013-02-12 10:41:00,
2013-02-12 05:42:00,30.0,25.2,30.13,WSW,252,10.3,13.8,82,0.00,CLR,,0.00,WeatherDisplay:10.37,2013-02-12 10:42:00,
2013-02-12 05:43:00,30.0,25.2,30.13,WSW,256,8.9,11.5,82,0.00,CLR,,0.00,WeatherDisplay:10.37,2013-02-12 10:43:00,
2013-02-12 05:44:00,30.0,25.2,30.13,WSW,244,11.0,12.7,82,0.00,CLR,,0.00,WeatherDisplay:10.37,2013-02-12 10:44:00,
2013-02-12 05:46:00,29.9,25.1,30.13,West,259,11.0,17.3,82,0.00,CLR,,0.00,WeatherDisplay:10.37,2013-02-12 10:46:00,
2013-02-12 05:48:00,29.9,25.1,30.13,WSW,246,8.3,13.8,82,0.00,CLR,,0.00,WeatherDisplay:10.37,2013-02-12 10:48:00,
2013-02-12 05:49:00,29.8,24.7,30.13,West,260,11.8,16.1,81,0.00,CLR,,0.00,WeatherDisplay:10.37,2013-02-12 10:49:00,
2013-02-12 05:51:00,29.6,24.5,30.13,WSW,251,6.8,13.8,81,0.00,CLR,,0.00,WeatherDisplay:10.37,2013-02-12 10:51:00,
2013-02-12 05:53:00,29.6,24.8,30.13,West,263,8.7,11.5,82,0.00,CLR,,0.00,WeatherDisplay:10.37,2013-02-12 10:53:00,
2013-02-12 05:54:00,29.6,24.5,30.13,WSW,257,7.6,8.1,81,0.00,CLR,,0.00,WeatherDisplay:10.37,2013-02-12 10:54:00,
2013-02-12 05:56:00,29.4,24.3,30.13,WSW,246,6.2,9.2,81,0.00,CLR,,0.00,WeatherDisplay:10.37,2013-02-12 10:56:00,
2013-02-12 05:58:00,29.4,24.0,30.13,WSW,254,12.6,12.6,80,0.00,CLR,,0.00,WeatherDisplay:10.37,2013-02-12 10:58:00,
2013-02-12 06:00:00,29.3,24.2,30.13,WSW,249,8.3,15.0,81,0.00,CLR,,0.00,WeatherDisplay:10.37,2013-02-12 11:00:00,
2013-02-12 06:01:00,29.2,23.8,30.13,West,271,6.4,13.8,80,0.00,CLR,,0.00,WeatherDisplay:10.37,2013-02-12 11:01:00,
2013-02-12 06:03:00,29.1,24.0,30.14,West,264,9.9,13.0,81,0.00,CLR,,0.00,WeatherDisplay:10.37,2013-02-12 11:03:00,
2013-02-12 06:04:00,29.1,24.0,30.14,WSW,253,10.2,12.7,81,0.00,CLR,,0.00,WeatherDisplay:10.37,2013-02-12 11:04:00,
2013-02-12 06:05:00,29.1,24.0,30.14,West,267,6.9,10.4,81,0.00,CLR,,0.00,WeatherDisplay:10.37,2013-02-12 11:05:00,
2013-02-12 06:07:00,29.0,23.9,30.14,WSW,253,7.9,11.5,81,0.00,CLR,,0.00,WeatherDisplay:10.37,2013-02-12 11:07:00,
2013-02-12 06:09:00,29.0,23.9,30.13,West,279,7.0,8.1,81,0.00,CLR,,0.00,WeatherDisplay:10.37,2013-02-12 11:09:00,
2013-02-12 06:10:00,29.0,23.9,30.14,WSW,252,6.6,9.2,81,0.00,CLR,,0.00,WeatherDisplay:10.37,2013-02-12 11:10:00,
2013-02-12 06:12:00,29.0,23.9,30.14,WSW,247,8.5,11.5,81,0.00,CLR,,0.00,WeatherDisplay:10.37,2013-02-12 11:12:00,
2013-02-12 06:14:00,29.0,23.9,30.14,WSW,257,7.9,10.4,81,0.00,CLR,,0.00,WeatherDisplay:10.37,2013-02-12 11:14:00,
2013-02-12 06:15:00,29.0,23.9,30.14,WSW,250,7.3,12.0,81,0.00,CLR,,0.00,WeatherDisplay:10.37,2013-02-12 11:15:00,
2013-02-12 06:17:00,28.9,23.8,30.14,WSW,252,7.4,11.5,81,0.00,CLR,,0.00,WeatherDisplay:10.37,2013-02-12 11:17:00,
2013-02-12 06:19:00,28.9,23.8,30.14,WSW,252,8.8,12.7,81,0.00,CLR,,0.00,WeatherDisplay:10.37,2013-02-12 11:19:00,
2013-02-12 06:21:00,28.9,23.8,30.14,WNW,293,7.4,11.5,81,0.00,CLR,,0.00,WeatherDisplay:10.37,2013-02-12 11:21:00,
2013-02-12 06:22:00,28.9,23.8,30.14,West,280,6.2,10.4,81,0.00,CLR,,0.00,WeatherDisplay:10.37,2013-02-12 11:22:00,
2013-02-12 06:24:00,28.8,23.7,30.14,West,265,8.3,9.2,81,0.00,CLR,,0.00,WeatherDisplay:10.37,2013-02-12 11:24:00,
2013-02-12 06:26:00,28.8,23.7,30.14,WSW,252,6.0,11.5,81,0.00,CLR,,0.00,WeatherDisplay:10.37,2013-02-12 11:26:00,
2013-02-12 06:27:00,28.8,23.7,30.14,West,261,5.7,10.4,81,0.00,CLR,,0.00,WeatherDisplay:10.37,2013-02-12 11:27:00,
2013-02-12 06:29:00,28.7,23.3,30.14,WNW,296,6.6,11.5,80,0.00,CLR,,0.00,WeatherDisplay:10.37,2013-02-12 11:29:00,
2013-02-12 06:30:00,28.7,23.3,30.14,West,265,6.6,11.5,80,0.00,CLR,,0.00,WeatherDisplay:10.37,2013-02-12 11:30:00,
2013-02-12 06:31:00,28.7,23.3,30.14,West,273,4.7,8.1,80,0.00,CLR,,0.00,WeatherDisplay:10.37,2013-02-12 11:31:00,
2013-02-12 06:32:00,28.7,23.3,30.14,West,265,6.4,9.0,80,0.00,CLR,,0.00,WeatherDisplay:10.37,2013-02-12 11:32:00,
2013-02-12 06:34:00,28.7,23.3,30.14,WNW,294,5.3,11.5,80,0.00,CLR,,0.00,WeatherDisplay:10.37,2013-02-12 11:34:00,
2013-02-12 06:35:00,28.7,23.3,30.14,NW,306,4.5,8.0,80,0.00,CLR,,0.00,WeatherDisplay:10.37,2013-02-12 11:35:00,
2013-02-12 06:36:00,28.7,23.3,30.14,West,274,6.3,10.4,80,0.00,CLR,,0.00,WeatherDisplay:10.37,2013-02-12 11:36:00,
2013-02-12 06:37:00,28.7,23.3,30.14,WNW,291,5.1,11.5,80,0.00,CLR,,0.00,WeatherDisplay:10.37,2013-02-12 11:37:00,
2013-02-12 06:39:00,28.7,23.3,30.14,NW,314,5.0,10.4,80,0.00,CLR,,0.00,WeatherDisplay:10.37,2013-02-12 11:39:00,
2013-02-12 06:40:00,28.7,23.3,30.14,WNW,284,5.5,9.2,80,0.00,CLR,,0.00,WeatherDisplay:10.37,2013-02-12 11:40:00,
2013-02-12 06:41:00,28.7,23.3,30.14,WNW,286,4.1,6.9,80,0.00,CLR,,0.00,WeatherDisplay:10.37,2013-02-12 11:41:00,
2013-02-12 06:42:00,28.6,23.2,30.14,West,270,3.0,5.8,80,0.00,CLR,,0.00,WeatherDisplay:10.37,2013-02-12 11:42:00,
2013-02-12 06:44:00,28.7,23.6,30.14,WNW,288,2.4,3.5,81,0.00,CLR,,0.00,WeatherDisplay:10.37,2013-02-12 11:44:00,
2013-02-12 06:45:00,28.7,23.6,30.14,WNW,284,2.5,7.0,81,0.00,CLR,,0.00,WeatherDisplay:10.37,2013-02-12 11:45:00,
2013-02-12 06:46:00,28.7,23.6,30.14,West,267,4.6,6.9,81,0.00,CLR,,0.00,WeatherDisplay:10.37,2013-02-12 11:46:00,
2013-02-12 06:47:00,28.7,23.6,30.14,WNW,287,6.5,9.2,81,0.00,CLR,,0.00,WeatherDisplay:10.37,2013-02-12 11:47:00,
2013-02-12 06:49:00,28.8,23.7,30.14,WNW,292,7.0,9.2,81,0.00,CLR,,0.00,WeatherDisplay:10.37,2013-02-12 11:49:00,
2013-02-12 06:50:00,28.8,23.7,30.14,WSW,248,5.9,9.2,81,0.00,CLR,,0.00,WeatherDisplay:10.37,2013-02-12 11:50:00,
2013-02-12 06:51:00,28.8,23.7,30.14,WSW,254,8.3,10.0,81,0.00,CLR,,0.00,WeatherDisplay:10.37,2013-02-12 11:51:00,
2013-02-12 06:52:00,28.8,23.7,30.14,WSW,251,8.7,11.5,81,0.00,CLR,,0.00,WeatherDisplay:10.37,2013-02-12 11:52:00,
2013-02-12 06:55:00,28.8,23.7,30.14,West,273,3.6,8.1,81,0.00,CLR,,0.00,WeatherDisplay:10.37,2013-02-12 11:55:00,
2013-02-12 06:57:00,28.8,23.7,30.14,WSW,244,7.4,11.0,81,0.00,CLR,,0.00,WeatherDisplay:10.37,2013-02-12 11:57:00,
2013-02-12 07:00:00,28.7,23.3,30.14,WSW,258,6.5,10.4,80,0.00,CLR,,0.00,WeatherDisplay:10.37,2013-02-12 12:00:00,
2013-02-12 07:01:00,28.8,23.7,30.14,WSW,257,5.4,10.4,81,0.00,CLR,,0.00,WeatherDisplay:10.37,2013-02-12 12:01:00,
2013-02-12 07:02:00,28.7,23.6,30.14,WSW,252,7.4,11.5,81,0.00,CLR,,0.00,WeatherDisplay:10.37,2013-02-12 12:02:00,
2013-02-12 07:05:00,28.7,23.6,30.14,West,276,5.6,6.9,81,0.00,CLR,,0.00,WeatherDisplay:10.37,2013-02-12 12:05:00,
2013-02-12 07:06:00,28.7,23.6,30.14,WNW,283,4.6,6.9,81,0.00,CLR,,0.00,WeatherDisplay:10.37,2013-02-12 12:06:00,
2013-02-12 07:07:00,28.8,24.0,30.14,West,265,2.5,4.0,82,0.00,CLR,,0.00,WeatherDisplay:10.37,2013-02-12 12:07:00,
2013-02-12 07:10:00,28.8,24.0,30.14,West,281,1.7,3.5,82,0.00,CLR,,0.00,WeatherDisplay:10.37,2013-02-12 12:10:00,
2013-02-12 07:11:00,28.8,24.0,30.14,West,280,2.5,3.5,82,0.00,CLR,,0.00,WeatherDisplay:10.37,2013-02-12 12:11:00,
2013-02-12 07:12:00,28.9,24.4,30.14,WNW,296,2.6,3.5,83,0.00,CLR,,0.00,WeatherDisplay:10.37,2013-02-12 12:12:00,
2013-02-12 07:15:00,28.9,24.1,30.14,West,276,3.0,3.5,82,0.00,CLR,,0.00,WeatherDisplay:10.37,2013-02-12 12:15:00,
2013-02-12 07:17:00,28.9,24.1,30.14,WNW,291,3.4,8.0,82,0.00,CLR,,0.00,WeatherDisplay:10.37,2013-02-12 12:17:00,
2013-02-12 07:20:00,28.9,24.1,30.14,West,265,4.2,4.6,82,0.00,CLR,,0.00,WeatherDisplay:10.37,2013-02-12 12:20:00,
2013-02-12 07:22:00,28.9,24.1,30.14,WNW,289,2.0,3.5,82,0.00,CLR,,0.00,WeatherDisplay:10.37,2013-02-12 12:22:00,
2013-02-12 07:23:00,28.9,24.1,30.14,West,272,3.1,3.5,82,0.00,CLR,,0.00,WeatherDisplay:10.37,2013-02-12 12:23:00,
2013-02-12 07:25:00,28.9,24.1,30.14,WNW,298,2.0,3.5,82,0.00,CLR,,0.00,WeatherDisplay:10.37,2013-02-12 12:25:00,
2013-02-12 07:27:00,28.9,23.8,30.14,WNW,298,3.4,6.0,81,0.00,CLR,,0.00,WeatherDisplay:10.37,2013-02-12 12:27:00,
2013-02-12 07:28:00,28.9,23.8,30.14,West,275,5.4,9.2,81,0.00,CLR,,0.00,WeatherDisplay:10.37,2013-02-12 12:28:00,
2013-02-12 07:30:00,28.8,23.7,30.14,West,267,5.8,9.2,81,0.00,CLR,,0.00,WeatherDisplay:10.37,2013-02-12 12:30:00,
2013-02-12 07:32:00,28.7,23.6,30.14,West,266,5.8,10.4,81,0.00,CLR,,0.00,WeatherDisplay:10.37,2013-02-12 12:32:00,
2013-02-12 07:33:00,28.7,23.6,30.14,West,278,4.7,6.9,81,0.00,CLR,,0.00,WeatherDisplay:10.37,2013-02-12 12:33:00,
2013-02-12 07:36:00,28.6,23.5,30.14,WSW,257,4.1,8.1,81,0.00,CLR,,0.00,WeatherDisplay:10.37,2013-02-12 12:36:00,
2013-02-12 07:37:00,28.6,23.5,30.14,West,259,4.3,5.8,81,0.00,CLR,,0.00,WeatherDisplay:10.37,2013-02-12 12:37:00,
2013-02-12 07:38:00,28.6,23.5,30.14,West,259,4.0,5.8,81,0.00,CLR,,0.00,WeatherDisplay:10.37,2013-02-12 12:38:00,
2013-02-12 07:41:00,28.6,23.5,30.14,WSW,254,3.1,4.6,81,0.00,CLR,,0.00,WeatherDisplay:10.37,2013-02-12 12:41:00,
2013-02-12 07:42:00,28.6,23.8,30.14,WNW,285,3.6,5.8,82,0.00,CLR,,0.00,WeatherDisplay:10.37,2013-02-12 12:42:00,
2013-02-12 07:43:00,28.6,23.5,30.14,West,269,3.6,5.8,81,0.00,CLR,,0.00,WeatherDisplay:10.37,2013-02-12 12:43:00,
2013-02-12 07:46:00,28.6,23.5,30.14,West,270,5.2,8.1,81,0.00,CLR,,0.00,WeatherDisplay:10.37,2013-02-12 12:46:00,
2013-02-12 07:47:00,28.6,23.8,30.14,WSW,252,5.3,7.0,82,0.00,CLR,,0.00,WeatherDisplay:10.37,2013-02-12 12:47:00,
2013-02-12 07:48:00,28.6,23.5,30.14,WSW,239,6.4,10.0,81,0.00,CLR,,0.00,WeatherDisplay:10.37,2013-02-12 12:48:00,
2013-02-12 07:51:00,28.6,23.5,30.14,West,261,9.0,10.4,81,0.00,CLR,,0.00,WeatherDisplay:10.37,2013-02-12 12:51:00,
2013-02-12 07:53:00,28.6,23.5,30.14,West,263,4.6,9.2,81,0.00,CLR,,0.00,WeatherDisplay:10.37,2013-02-12 12:53:00,
2013-02-12 07:56:00,28.7,23.9,30.14,West,279,2.9,6.9,82,0.00,CLR,,0.00,WeatherDisplay:10.37,2013-02-12 12:56:00,
2013-02-12 07:58:00,28.8,24.0,30.14,West,268,3.8,5.8,82,0.00,CLR,,0.00,WeatherDisplay:10.37,2013-02-12 12:58:00,
2013-02-12 07:59:00,28.8,24.0,30.14,West,272,3.9,5.8,82,0.00,CLR,,0.00,WeatherDisplay:10.37,2013-02-12 12:59:00,
2013-02-12 08:01:00,28.8,23.7,30.14,WSW,253,3.8,5.8,81,0.00,CLR,,0.00,WeatherDisplay:10.37,2013-02-12 13:01:00,
2013-02-12 08:03:00,28.8,24.0,30.15,West,267,3.1,6.9,82,0.00,CLR,,0.00,WeatherDisplay:10.37,2013-02-12 13:03:00,
2013-02-12 08:04:00,28.8,23.7,30.15,West,271,4.1,6.0,81,0.00,CLR,,0.00,WeatherDisplay:10.37,2013-02-12 13:04:00,
2013-02-12 08:07:00,28.8,24.0,30.15,WSW,256,5.2,6.0,82,0.00,CLR,,0.00,WeatherDisplay:10.37,2013-02-12 13:07:00,
2013-02-12 08:08:00,28.8,24.0,30.15,WSW,240,4.4,5.8,82,0.00,CLR,,0.00,WeatherDisplay:10.37,2013-02-12 13:08:00,
2013-02-12 08:09:00,28.8,24.0,30.15,WSW,247,4.5,8.0,82,0.00,CLR,,0.00,WeatherDisplay:10.37,2013-02-12 13:09:00,
2013-02-12 08:12:00,28.7,23.6,30.15,SW,217,6.0,6.9,81,0.00,CLR,,0.00,WeatherDisplay:10.37,2013-02-12 13:12:00,
2013-02-12 08:13:00,28.7,23.6,30.15,SW,234,5.2,6.9,81,0.00,CLR,,0.00,WeatherDisplay:10.37,2013-02-12 13:13:00,
2013-02-12 08:14:00,28.7,23.9,30.15,WSW,245,6.0,8.1,82,0.00,CLR,,0.00,WeatherDisplay:10.37,2013-02-12 13:14:00,
2013-02-12 08:17:00,28.7,23.9,30.15,WSW,244,4.7,5.8,82,0.00,CLR,,0.00,WeatherDisplay:10.37,2013-02-12 13:17:00,
2013-02-12 08:18:00,28.7,23.9,30.15,West,259,6.1,6.9,82,0.00,CLR,,0.00,WeatherDisplay:10.37,2013-02-12 13:18:00,
2013-02-12 08:19:00,28.7,23.9,30.15,WSW,250,5.2,8.1,82,0.00,CLR,,0.00,WeatherDisplay:10.37,2013-02-12 13:19:00,
2013-02-12 08:20:00,28.7,23.9,30.15,SW,228,4.8,5.8,82,0.00,CLR,,0.00,WeatherDisplay:10.37,2013-02-12 13:20:00,
2013-02-12 08:22:00,28.7,23.9,30.15,SW,224,4.7,8.1,82,0.00,CLR,,0.00,WeatherDisplay:10.37,2013-02-12 13:22:00,
2013-02-12 08:23:00,28.7,23.9,30.15,WSW,238,5.2,5.8,82,0.00,CLR,,0.00,WeatherDisplay:10.37,2013-02-12 13:23:00,
2013-02-12 08:24:00,28.7,23.9,30.15,WSW,244,6.4,7.0,82,0.00,CLR,,0.00,WeatherDisplay:10.37,2013-02-12 13:24:00,
2013-02-12 08:25:00,28.6,23.5,30.15,SW,221,5.6,8.1,81,0.00,CLR,,0.00,WeatherDisplay:10.37,2013-02-12 13:25:00,
2013-02-12 08:27:00,28.7,23.9,30.15,SW,221,5.6,8.0,82,0.00,CLR,,0.00,WeatherDisplay:10.37,2013-02-12 13:27:00,
2013-02-12 08:28:00,28.7,23.9,30.15,WSW,238,6.7,8.1,82,0.00,CLR,,0.00,WeatherDisplay:10.37,2013-02-12 13:28:00,
2013-02-12 08:29:00,28.7,23.6,30.15,WSW,237,5.0,9.2,81,0.00,CLR,,0.00,WeatherDisplay:10.37,2013-02-12 13:29:00,
2013-02-12 08:30:00,28.7,23.6,30.15,WSW,238,4.5,5.8,81,0.00,CLR,,0.00,WeatherDisplay:10.37,2013-02-12 13:30:00,
2013-02-12 08:32:00,28.6,23.8,30.15,WSW,238,4.4,5.8,82,0.00,CLR,,0.00,WeatherDisplay:10.37,2013-02-12 13:32:00,
2013-02-12 08:33:00,28.7,23.9,30.15,WSW,243,5.0,6.9,82,0.00,CLR,,0.00,WeatherDisplay:10.37,2013-02-12 13:33:00,
2013-02-12 08:34:00,28.7,23.9,30.15,WSW,239,5.1,5.8,82,0.00,CLR,,0.00,WeatherDisplay:10.37,2013-02-12 13:34:00,
2013-02-12 08:35:00,28.7,23.9,30.15,SW,232,5.1,6.9,82,0.00,CLR,,0.00,WeatherDisplay:10.37,2013-02-12 13:35:00,
2013-02-12 08:38:00,28.7,23.6,30.15,SW,218,5.4,8.0,81,0.00,CLR,,0.00,WeatherDisplay:10.37,2013-02-12 13:38:00,
2013-02-12 08:39:00,28.7,23.6,30.15,SW,222,5.9,8.1,81,0.00,CLR,,0.00,WeatherDisplay:10.37,2013-02-12 13:39:00,
2013-02-12 08:41:00,28.8,23.7,30.15,SW,235,4.1,6.9,81,0.00,CLR,,0.00,WeatherDisplay:10.37,2013-02-12 13:41:00,
2013-02-12 08:43:00,28.8,24.0,30.16,WSW,254,5.2,8.1,82,0.00,CLR,,0.00,WeatherDisplay:10.37,2013-02-12 13:43:00,
2013-02-12 08:44:00,28.8,24.0,30.16,WSW,249,4.9,7.0,82,0.00,CLR,,0.00,WeatherDisplay:10.37,2013-02-12 13:44:00,
2013-02-12 08:46:00,28.8,24.0,30.15,SW,227,4.5,5.8,82,0.00,CLR,,0.00,WeatherDisplay:10.37,2013-02-12 13:46:00,
2013-02-12 08:48:00,28.9,23.8,30.15,WSW,246,6.3,8.1,81,0.00,CLR,,0.00,WeatherDisplay:10.37,2013-02-12 13:48:00,
2013-02-12 08:49:00,28.9,23.8,30.15,WSW,250,7.0,9.2,81,0.00,CLR,,0.00,WeatherDisplay:10.37,2013-02-12 13:49:00,
2013-02-12 08:51:00,28.9,23.8,30.15,WSW,241,6.9,9.2,81,0.00,CLR,,0.00,WeatherDisplay:10.37,2013-02-12 13:51:00,
2013-02-12 08:53:00,28.9,23.8,30.15,WSW,246,7.2,8.1,81,0.00,CLR,,0.00,WeatherDisplay:10.37,2013-02-12 13:53:00,
2013-02-12 08:54:00,28.9,23.8,30.15,SW,217,5.5,9.2,81,0.00,CLR,,0.00,WeatherDisplay:10.37,2013-02-12 13:54:00,
2013-02-12 08:56:00,28.9,23.8,30.15,SW,220,8.2,11.0,81,0.00,CLR,,0.00,WeatherDisplay:10.37,2013-02-12 13:56:00,
2013-02-12 08:58:00,28.9,23.5,30.15,SW,219,6.7,10.4,80,0.00,CLR,,0.00,WeatherDisplay:10.37,2013-02-12 13:58:00,
2013-02-12 09:00:00,28.9,23.8,30.15,WSW,248,5.6,8.1,81,0.00,CLR,,0.00,WeatherDisplay:10.37,2013-02-12 14:00:00,
2013-02-12 09:01:00,29.0,23.9,30.16,SW,232,5.8,8.1,81,0.00,CLR,,0.00,WeatherDisplay:10.37,2013-02-12 14:01:00,
2013-02-12 09:03:00,29.0,23.9,30.16,SW,232,7.5,10.4,81,0.00,CLR,,0.00,WeatherDisplay:10.37,2013-02-12 14:03:00,
2013-02-12 09:05:00,29.1,23.7,30.16,SW,236,6.0,9.2,80,0.00,CLR,,0.00,WeatherDisplay:10.37,2013-02-12 14:05:00,
2013-02-12 09:06:00,29.2,23.8,30.16,WSW,244,6.9,10.4,80,0.00,CLR,,0.00,WeatherDisplay:10.37,2013-02-12 14:06:00,
2013-02-12 09:08:00,29.2,23.8,30.16,WSW,246,9.3,11.5,80,0.00,CLR,,0.00,WeatherDisplay:10.37,2013-02-12 14:08:00,
2013-02-12 09:10:00,29.2,23.8,30.16,WSW,243,6.9,8.1,80,0.00,CLR,,0.00,WeatherDisplay:10.37,2013-02-12 14:10:00,
2013-02-12 09:11:00,29.2,23.8,30.16,West,264,7.5,10.4,80,0.00,CLR,,0.00,WeatherDisplay:10.37,2013-02-12 14:11:00,
2013-02-12 09:13:00,29.2,23.8,30.16,West,274,4.8,8.1,80,0.00,CLR,,0.00,WeatherDisplay:10.37,2013-02-12 14:13:00,
2013-02-12 09:14:00,29.3,23.9,30.16,WNW,289,4.4,8.1,80,0.00,CLR,,0.00,WeatherDisplay:10.37,2013-02-12 14:14:00,
2013-02-12 09:15:00,29.3,23.9,30.16,West,275,4.4,5.8,80,0.00,CLR,,0.00,WeatherDisplay:10.37,2013-02-12 14:15:00,
2013-02-12 09:16:00,29.4,24.0,30.16,West,259,2.8,6.9,80,0.00,CLR,,0.00,WeatherDisplay:10.37,2013-02-12 14:16:00,
2013-02-12 09:18:00,29.5,24.1,30.16,WSW,252,3.3,5.0,80,0.00,CLR,,0.00,WeatherDisplay:10.37,2013-02-12 14:18:00,
2013-02-12 09:19:00,29.5,24.1,30.16,WSW,248,4.1,6.0,80,0.00,CLR,,0.00,WeatherDisplay:10.37,2013-02-12 14:19:00,
2013-02-12 09:20:00,29.6,24.2,30.16,West,270,5.3,6.9,80,0.00,CLR,,0.00,WeatherDisplay:10.37,2013-02-12 14:20:00,
2013-02-12 09:22:00,29.6,23.9,30.16,West,264,4.5,8.1,79,0.00,CLR,,0.00,WeatherDisplay:10.37,2013-02-12 14:22:00,
2013-02-12 09:23:00,29.6,23.9,30.16,West,278,5.6,5.8,79,0.00,CLR,,0.00,WeatherDisplay:10.37,2013-02-12 14:23:00,
2013-02-12 09:24:00,29.5,23.8,30.16,West,275,5.6,8.1,79,0.00,CLR,,0.00,WeatherDisplay:10.37,2013-02-12 14:24:00,
2013-02-12 09:26:00,29.5,23.8,30.16,West,265,2.0,4.0,79,0.00,CLR,,0.00,WeatherDisplay:10.37,2013-02-12 14:26:00,
2013-02-12 09:27:00,29.5,24.1,30.16,West,261,7.8,11.5,80,0.00,CLR,,0.00,WeatherDisplay:10.37,2013-02-12 14:27:00,
2013-02-12 09:28:00,29.5,23.8,30.17,West,260,6.6,11.5,79,0.00,CLR,,0.00,WeatherDisplay:10.37,2013-02-12 14:28:00,
2013-02-12 09:29:00,29.5,23.8,30.17,WNW,284,7.1,10.4,79,0.00,CLR,,0.00,WeatherDisplay:10.37,2013-02-12 14:29:00,
2013-02-12 09:31:00,29.5,24.1,30.17,WSW,244,7.0,9.2,80,0.00,CLR,,0.00,WeatherDisplay:10.37,2013-02-12 14:31:00,
2013-02-12 09:32:00,29.5,23.8,30.17,West,263,4.8,9.2,79,0.00,CLR,,0.00,WeatherDisplay:10.37,2013-02-12 14:32:00,
2013-02-12 09:33:00,29.5,24.1,30.17,West,281,4.8,5.8,80,0.00,CLR,,0.00,WeatherDisplay:10.37,2013-02-12 14:33:00,
2013-02-12 09:34:00,29.6,24.2,30.16,West,273,3.1,6.9,80,0.00,CLR,,0.00,WeatherDisplay:10.37,2013-02-12 14:34:00,
2013-02-12 09:36:00,29.7,24.3,30.16,WSW,252,6.1,9.2,80,0.00,CLR,,0.00,WeatherDisplay:10.37,2013-02-12 14:36:00,
2013-02-12 09:37:00,29.8,24.7,30.16,SW,232,4.7,6.9,81,0.00,CLR,,0.00,WeatherDisplay:10.37,2013-02-12 14:37:00,
2013-02-12 09:38:00,29.8,24.4,30.16,WSW,257,6.6,8.1,80,0.00,CLR,,0.00,WeatherDisplay:10.37,2013-02-12 14:38:00,
2013-02-12 09:40:00,29.8,24.1,30.16,WSW,250,7.0,9.0,79,0.00,CLR,,0.00,WeatherDisplay:10.37,2013-02-12 14:40:00,
2013-02-12 09:41:00,29.7,24.0,30.15,WSW,250,6.9,10.4,79,0.00,CLR,,0.00,WeatherDisplay:10.37,2013-02-12 14:41:00,
2013-02-12 09:42:00,29.7,24.0,30.16,West,269,3.8,9.2,79,0.00,CLR,,0.00,WeatherDisplay:10.37,2013-02-12 14:42:00,
2013-02-12 09:43:00,29.7,24.0,30.15,West,267,4.5,5.8,79,0.00,CLR,,0.00,WeatherDisplay:10.37,2013-02-12 14:43:00,
2013-02-12 09:45:00,29.8,24.4,30.15,WSW,252,6.1,8.1,80,0.00,CLR,,0.00,WeatherDisplay:10.37,2013-02-12 14:45:00,
2013-02-12 09:46:00,29.8,24.4,30.15,WSW,242,7.6,9.2,80,0.00,CLR,,0.00,WeatherDisplay:10.37,2013-02-12 14:46:00,
2013-02-12 09:47:00,29.8,24.1,30.15,WSW,250,4.4,8.1,79,0.00,CLR,,0.00,WeatherDisplay:10.37,2013-02-12 14:47:00,
2013-02-12 09:48:00,29.8,24.4,30.15,WSW,247,5.0,7.0,80,0.00,CLR,,0.00,WeatherDisplay:10.37,2013-02-12 14:48:00,
2013-02-12 09:50:00,29.9,24.2,30.16,SW,221,4.2,5.8,79,0.00,CLR,,0.00,WeatherDisplay:10.37,2013-02-12 14:50:00,
2013-02-12 09:51:00,29.9,24.5,30.16,SW,225,4.3,5.0,80,0.00,CLR,,0.00,WeatherDisplay:10.37,2013-02-12 14:51:00,
2013-02-12 09:53:00,30.0,24.6,30.15,SW,225,3.6,4.0,80,0.00,CLR,,0.00,WeatherDisplay:10.37,2013-02-12 14:53:00,
2013-02-12 09:54:00,30.0,24.6,30.15,SW,233,3.4,4.6,80,0.00,CLR,,0.00,WeatherDisplay:10.37,2013-02-12 14:54:00,
2013-02-12 09:55:00,30.1,24.7,30.15,WSW,240,4.0,5.0,80,0.00,CLR,,0.00,WeatherDisplay:10.37,2013-02-12 14:55:00,
2013-02-12 09:56:00,30.1,24.7,30.15,SW,236,5.9,7.0,80,0.00,CLR,,0.00,WeatherDisplay:10.37,2013-02-12 14:56:00,
2013-02-12 09:58:00,30.1,24.7,30.15,WSW,238,6.6,9.2,80,0.00,CLR,,0.00,WeatherDisplay:10.37,2013-02-12 14:58:00,
2013-02-12 09:59:00,30.2,24.5,30.15,SW,234,6.1,8.1,79,0.00,CLR,,0.00,WeatherDisplay:10.37,2013-02-12 14:59:00,
2013-02-12 10:00:00,30.1,24.4,30.15,SW,236,7.0,9.2,79,0.00,CLR,,0.00,WeatherDisplay:10.37,2013-02-12 15:00:00,
2013-02-12 10:01:00,30.1,24.7,30.16,WSW,254,4.4,6.9,80,0.00,CLR,,0.00,WeatherDisplay:10.37,2013-02-12 15:01:00,
2013-02-12 10:03:00,30.1,24.7,30.16,WSW,250,6.7,9.0,80,0.00,CLR,,0.00,WeatherDisplay:10.37,2013-02-12 15:03:00,
2013-02-12 10:04:00,30.1,24.7,30.16,West,259,8.0,9.2,80,0.00,CLR,,0.00,WeatherDisplay:10.37,2013-02-12 15:04:00,
2013-02-12 10:05:00,30.1,24.4,30.16,WSW,257,6.6,10.4,79,0.00,CLR,,0.00,WeatherDisplay:10.37,2013-02-12 15:05:00,
2013-02-12 10:06:00,30.1,24.7,30.16,WSW,248,5.3,8.1,80,0.00,CLR,,0.00,WeatherDisplay:10.37,2013-02-12 15:06:00,
2013-02-12 10:08:00,30.1,24.4,30.15,WSW,249,4.9,8.1,79,0.00,CLR,,0.00,WeatherDisplay:10.37,2013-02-12 15:08:00,
2013-02-12 10:09:00,30.1,24.4,30.15,WSW,238,4.4,6.9,79,0.00,CLR,,0.00,WeatherDisplay:10.37,2013-02-12 15:09:00,
2013-02-12 10:11:00,30.2,24.8,30.16,West,269,4.2,5.8,80,0.00,CLR,,0.00,WeatherDisplay:10.37,2013-02-12 15:11:00,
2013-02-12 10:13:00,30.3,24.9,30.16,West,260,6.0,6.9,80,0.00,CLR,,0.00,WeatherDisplay:10.37,2013-02-12 15:13:00,
2013-02-12 10:14:00,30.3,24.9,30.16,WSW,252,6.2,8.1,80,0.00,CLR,,0.00,WeatherDisplay:10.37,2013-02-12 15:14:00,
2013-02-12 10:16:00,30.4,25.0,30.15,SW,217,6.6,9.2,80,0.00,CLR,,0.00,WeatherDisplay:10.37,2013-02-12 15:16:00,
2013-02-12 10:17:00,30.4,25.0,30.15,SW,232,7.2,9.2,80,0.00,CLR,,0.00,WeatherDisplay:10.37,2013-02-12 15:17:00,
2013-02-12 10:18:00,30.4,25.0,30.15,SW,236,6.1,8.1,80,0.00,CLR,,0.00,WeatherDisplay:10.37,2013-02-12 15:18:00,
2013-02-12 10:19:00,30.5,25.4,30.15,SSW,207,6.8,8.0,81,0.00,CLR,,0.00,WeatherDisplay:10.37,2013-02-12 15:19:00,
2013-02-12 10:21:00,30.6,25.5,30.16,SSW,193,6.4,8.1,81,0.00,CLR,,0.00,WeatherDisplay:10.37,2013-02-12 15:21:00,
2013-02-12 10:22:00,30.7,25.6,30.16,SSW,207,6.5,6.9,81,0.00,CLR,,0.00,WeatherDisplay:10.37,2013-02-12 15:22:00,
2013-02-12 10:23:00,30.8,25.4,30.16,SW,226,5.2,7.0,80,0.00,CLR,,0.00,WeatherDisplay:10.37,2013-02-12 15:23:00,
2013-02-12 10:24:00,30.8,25.1,30.16,WSW,249,6.2,9.0,79,0.00,CLR,,0.00,WeatherDisplay:10.37,2013-02-12 15:24:00,
2013-02-12 10:26:00,30.8,25.1,30.15,WSW,240,7.9,11.5,79,0.00,CLR,,0.00,WeatherDisplay:10.37,2013-02-12 15:26:00,
2013-02-12 10:27:00,30.8,25.1,30.15,SW,236,7.5,9.2,79,0.00,CLR,,0.00,WeatherDisplay:10.37,2013-02-12 15:27:00,
2013-02-12 10:28:00,30.8,25.1,30.15,SSW,203,7.7,11.5,79,0.00,CLR,,0.00,WeatherDisplay:10.37,2013-02-12 15:28:00,
2013-02-12 10:29:00,30.8,25.1,30.15,SSW,212,7.3,10.4,79,0.00,CLR,,0.00,WeatherDisplay:10.37,2013-02-12 15:29:00,
2013-02-12 10:31:00,30.7,25.0,30.15,SW,234,6.0,8.1,79,0.00,CLR,,0.00,WeatherDisplay:10.37,2013-02-12 15:31:00,
2013-02-12 10:32:00,30.7,25.0,30.15,SSW,210,5.1,6.9,79,0.00,CLR,,0.00,WeatherDisplay:10.37,2013-02-12 15:32:00,
2013-02-12 10:34:00,30.6,24.9,30.15,WSW,250,4.1,6.9,79,0.00,CLR,,0.00,WeatherDisplay:10.37,2013-02-12 15:34:00,
2013-02-12 10:36:00,30.8,25.1,30.15,SW,222,5.1,8.1,79,0.00,CLR,,0.00,WeatherDisplay:10.37,2013-02-12 15:36:00,
2013-02-12 10:37:00,30.9,25.2,30.15,SW,225,5.3,5.8,79,0.00,CLR,,0.00,WeatherDisplay:10.37,2013-02-12 15:37:00,
2013-02-12 10:39:00,31.1,25.3,30.15,South,188,6.8,8.1,79,0.00,CLR,,0.00,WeatherDisplay:10.37,2013-02-12 15:39:00,
2013-02-12 10:41:00,31.3,25.5,30.15,SW,235,6.7,8.1,79,0.00,CLR,,0.00,WeatherDisplay:10.37,2013-02-12 15:41:00,
2013-02-12 10:42:00,31.4,25.9,30.15,SSW,209,5.3,8.1,80,0.00,CLR,,0.00,WeatherDisplay:10.37,2013-02-12 15:42:00,
2013-02-12 10:44:00,31.5,25.4,30.15,WSW,240,6.8,8.1,78,0.00,CLR,,0.00,WeatherDisplay:10.37,2013-02-12 15:44:00,
2013-02-12 10:46:00,31.5,25.4,30.15,SW,233,6.6,10.4,78,0.00,CLR,,0.00,WeatherDisplay:10.37,2013-02-12 15:46:00,
2013-02-12 10:47:00,31.6,25.5,30.15,WSW,252,2.8,8.1,78,0.00,CLR,,0.00,WeatherDisplay:10.37,2013-02-12 15:47:00,
2013-02-12 10:49:00,31.6,25.5,30.15,WSW,253,5.3,6.9,78,0.00,CLR,,0.00,WeatherDisplay:10.37,2013-02-12 15:49:00,
2013-02-12 10:51:00,31.8,26.0,30.15,SW,234,6.0,8.1,79,0.00,CLR,,0.00,WeatherDisplay:10.37,2013-02-12 15:51:00,
2013-02-12 10:52:00,31.9,25.8,30.15,SSW,209,5.5,9.2,78,0.00,CLR,,0.00,WeatherDisplay:10.37,2013-02-12 15:52:00,
2013-02-12 10:54:00,32.0,25.9,30.15,SSW,213,7.9,9.2,78,0.00,CLR,,0.00,WeatherDisplay:10.37,2013-02-12 15:54:00,
2013-02-12 10:56:00,32.2,26.1,30.15,SSW,200,5.5,7.0,78,0.00,CLR,,0.00,WeatherDisplay:10.37,2013-02-12 15:56:00,
2013-02-12 10:57:00,32.3,26.2,30.15,SSW,210,5.7,6.9,78,0.00,CLR,,0.00,WeatherDisplay:10.37,2013-02-12 15:57:00,
2013-02-12 10:59:00,32.4,26.3,30.15,SW,215,5.9,9.2,78,0.00,CLR,,0.00,WeatherDisplay:10.37,2013-02-12 15:59:00,
2013-02-12 11:00:00,32.5,26.4,30.15,SW,223,5.9,6.9,78,0.00,CLR,,0.00,WeatherDisplay:10.37,2013-02-12 16:00:00,
2013-02-12 11:02:00,32.5,26.1,30.15,SW,225,5.6,8.1,77,0.00,CLR,,0.00,WeatherDisplay:10.37,2013-02-12 16:02:00,
2013-02-12 11:03:00,32.5,26.1,30.15,SSW,209,6.4,8.1,77,0.00,CLR,,0.00,WeatherDisplay:10.37,2013-02-12 16:03:00,
2013-02-12 11:05:00,32.5,26.1,30.15,SW,215,5.6,6.9,77,0.00,CLR,,0.00,WeatherDisplay:10.37,2013-02-12 16:05:00,
2013-02-12 11:07:00,32.4,26.3,30.15,WSW,242,5.2,6.9,78,0.00,CLR,,0.00,WeatherDisplay:10.37,2013-02-12 16:07:00,
2013-02-12 11:08:00,32.4,26.3,30.15,WSW,240,6.6,8.1,78,0.00,CLR,,0.00,WeatherDisplay:10.37,2013-02-12 16:08:00,
2013-02-12 11:10:00,32.4,26.0,30.15,SW,222,7.0,9.0,77,0.00,CLR,,0.00,WeatherDisplay:10.37,2013-02-12 16:10:00,
2013-02-12 11:12:00,32.0,25.6,30.15,WSW,246,3.8,6.9,77,0.00,CLR,,0.00,WeatherDisplay:10.37,2013-02-12 16:12:00,
2013-02-12 11:13:00,31.9,25.5,30.15,WSW,257,4.9,5.8,77,0.00,CLR,,0.00,WeatherDisplay:10.37,2013-02-12 16:13:00,
2013-02-12 11:15:00,31.8,25.7,30.15,West,267,5.1,8.1,78,0.00,CLR,,0.00,WeatherDisplay:10.37,2013-02-12 16:15:00,
2013-02-12 11:18:00,31.9,25.8,30.15,West,260,8.3,11.5,78,0.00,CLR,,0.00,WeatherDisplay:10.37,2013-02-12 16:18:00,
2013-02-12 11:20:00,31.8,25.7,30.15,WSW,248,6.1,8.1,78,0.00,CLR,,0.00,WeatherDisplay:10.37,2013-02-12 16:20:00,
2013-02-12 11:23:00,31.8,25.7,30.15,SW,231,7.6,11.5,78,0.00,CLR,,0.00,WeatherDisplay:10.37,2013-02-12 16:23:00,
2013-02-12 11:24:00,31.7,25.6,30.15,SW,229,7.8,10.4,78,0.00,CLR,,0.00,WeatherDisplay:10.37,2013-02-12 16:24:00,
2013-02-12 11:25:00,31.6,25.5,30.15,SSW,211,7.0,9.2,78,0.00,CLR,,0.00,WeatherDisplay:10.37,2013-02-12 16:25:00,
2013-02-12 11:28:00,31.5,25.7,30.15,SW,226,6.2,6.9,79,0.00,CLR,,0.00,WeatherDisplay:10.37,2013-02-12 16:28:00,
2013-02-12 11:29:00,31.5,25.7,30.15,SW,223,5.1,9.2,79,0.00,CLR,,0.00,WeatherDisplay:10.37,2013-02-12 16:29:00,
2013-02-12 11:30:00,31.6,25.8,30.15,SSW,207,5.0,6.0,79,0.00,CLR,,0.00,WeatherDisplay:10.37,2013-02-12 16:30:00,
2013-02-12 11:33:00,32.0,26.2,30.16,SW,233,8.8,11.5,79,0.00,CLR,,0.00,WeatherDisplay:10.37,2013-02-12 16:33:00,
2013-02-12 11:34:00,32.0,26.2,30.16,SW,218,7.6,10.4,79,0.00,CLR,,0.00,WeatherDisplay:10.37,2013-02-12 16:34:00,
2013-02-12 11:35:00,32.1,26.3,30.16,SW,220,7.0,9.2,79,0.00,CLR,,0.00,WeatherDisplay:10.37,2013-02-12 16:35:00,
2013-02-12 11:38:00,32.4,26.3,30.16,SW,221,4.0,11.5,78,0.00,CLR,,0.00,WeatherDisplay:10.37,2013-02-12 16:38:00,
2013-02-12 11:39:00,32.4,26.3,30.16,WSW,242,3.7,5.0,78,0.00,CLR,,0.00,WeatherDisplay:10.37,2013-02-12 16:39:00,
2013-02-12 11:40:00,32.4,26.3,30.16,SW,236,4.8,7.0,78,0.00,CLR,,0.00,WeatherDisplay:10.37,2013-02-12 16:40:00,
2013-02-12 11:44:00,32.6,26.2,30.16,SW,220,8.0,10.4,77,0.00,CLR,,0.00,WeatherDisplay:10.37,2013-02-12 16:44:00,
2013-02-12 11:45:00,32.4,25.7,30.16,SW,234,7.7,11.5,76,0.00,CLR,,0.00,WeatherDisplay:10.37,2013-02-12 16:45:00,
2013-02-12 11:49:00,31.9,25.2,30.15,SW,225,3.7,4.6,76,0.00,CLR,,0.00,WeatherDisplay:10.37,2013-02-12 16:49:00,
2013-02-12 11:50:00,31.8,25.4,30.15,WSW,257,7.7,9.2,77,0.00,CLR,,0.00,WeatherDisplay:10.37,2013-02-12 16:50:00,
2013-02-12 11:54:00,31.6,25.5,30.15,SW,235,7.8,10.4,78,0.00,CLR,,0.00,WeatherDisplay:10.37,2013-02-12 16:54:00,
2013-02-12 11:55:00,31.7,25.6,30.15,SW,227,6.8,9.2,78,0.00,CLR,,0.00,WeatherDisplay:10.37,2013-02-12 16:55:00,
2013-02-12 11:59:00,32.1,25.7,30.15,WSW,247,5.7,9.0,77,0.00,CLR,,0.00,WeatherDisplay:10.37,2013-02-12 16:59:00,
2013-02-12 12:00:00,32.1,26.0,30.15,West,261,7.8,11.5,78,0.00,CLR,,0.00,WeatherDisplay:10.37,2013-02-12 17:00:00,
2013-02-12 12:01:00,32.2,26.1,30.15,West,264,6.0,11.5,78,0.00,CLR,,0.00,WeatherDisplay:10.37,2013-02-12 17:01:00,
2013-02-12 12:04:00,32.3,25.9,30.15,West,267,5.5,8.1,77,0.00,CLR,,0.00,WeatherDisplay:10.37,2013-02-12 17:04:00,
2013-02-12 12:05:00,32.3,25.6,30.14,SW,223,4.4,8.1,76,0.00,CLR,,0.00,WeatherDisplay:10.37,2013-02-12 17:05:00,
2013-02-12 12:06:00,32.3,25.9,30.14,SSW,208,5.6,6.9,77,0.00,CLR,,0.00,WeatherDisplay:10.37,2013-02-12 17:06:00,
2013-02-12 12:10:00,32.5,26.4,30.14,SSW,211,3.9,5.0,78,0.00,CLR,,0.00,WeatherDisplay:10.37,2013-02-12 17:10:00,
2013-02-12 12:11:00,32.6,26.2,30.14,WSW,244,5.1,8.0,77,0.00,CLR,,0.00,WeatherDisplay:10.37,2013-02-12 17:11:00,
2013-02-12 12:15:00,32.5,26.1,30.14,SW,221,6.7,9.2,77,0.00,CLR,,0.00,WeatherDisplay:10.37,2013-02-12 17:15:00,
2013-02-12 12:16:00,32.7,26.9,30.13,WSW,248,5.2,6.9,79,0.00,CLR,,0.00,WeatherDisplay:10.37,2013-02-12 17:16:00,
2013-02-12 12:20:00,33.3,27.2,30.13,WSW,238,7.3,11.5,78,0.00,CLR,,0.00,WeatherDisplay:10.37,2013-02-12 17:20:00,
2013-02-12 12:21:00,33.5,27.1,30.13,WSW,254,8.2,9.2,77,0.00,CLR,,0.00,WeatherDisplay:10.37,2013-02-12 17:21:00,
2013-02-12 12:25:00,33.6,26.8,30.13,SSW,199,6.4,8.1,76,0.00,CLR,,0.00,WeatherDisplay:10.37,2013-02-12 17:25:00,
2013-02-12 12:26:00,33.7,27.3,30.12,WSW,251,6.6,9.2,77,0.00,CLR,,0.00,WeatherDisplay:10.37,2013-02-12 17:26:00,
2013-02-12 12:30:00,33.7,26.9,30.12,West,261,8.8,11.5,76,0.00,CLR,,0.00,WeatherDisplay:10.37,2013-02-12 17:30:00,
2013-02-12 12:31:00,33.5,26.4,30.12,WNW,283,6.0,10.4,75,0.00,CLR,,0.00,WeatherDisplay:10.37,2013-02-12 17:31:00,
2013-02-12 12:32:00,33.4,26.6,30.12,West,259,4.7,8.0,76,0.00,CLR,,0.00,WeatherDisplay:10.37,2013-02-12 17:32:00,
2013-02-12 12:35:00,33.6,26.8,30.12,West,278,3.5,5.8,76,0.00,CLR,,0.00,WeatherDisplay:10.37,2013-02-12 17:35:00,
2013-02-12 12:36:00,33.7,26.9,30.12,NW,310,4.1,6.0,76,0.00,CLR,,0.00,WeatherDisplay:10.37,2013-02-12 17:36:00,
2013-02-12 12:37:00,33.9,27.1,30.12,West,259,4.7,9.2,76,0.00,CLR,,0.00,WeatherDisplay:10.37,2013-02-12 17:37:00,
2013-02-12 12:40:00,33.9,26.5,30.12,WSW,254,6.6,9.2,74,0.00,CLR,,0.00,WeatherDisplay:10.37,2013-02-12 17:40:00,
2013-02-12 12:41:00,33.9,26.8,30.11,WSW,252,5.6,7.0,75,0.00,CLR,,0.00,WeatherDisplay:10.37,2013-02-12 17:41:00,
2013-02-12 12:42:00,33.8,27.0,30.11,WNW,302,5.3,6.9,76,0.00,CLR,,0.00,WeatherDisplay:10.37,2013-02-12 17:42:00,
2013-02-12 12:45:00,34.1,27.0,30.11,WSW,250,3.3,4.6,75,0.00,CLR,,0.00,WeatherDisplay:10.37,2013-02-12 17:45:00,
2013-02-12 12:46:00,34.2,27.1,30.11,WNW,292,4.3,5.8,75,0.00,CLR,,0.00,WeatherDisplay:10.37,2013-02-12 17:46:00,
2013-02-12 12:48:00,34.3,27.5,30.10,WSW,250,4.0,9.2,76,0.00,CLR,,0.00,WeatherDisplay:10.37,2013-02-12 17:48:00,
2013-02-12 12:50:00,34.7,28.2,30.10,SW,221,7.8,9.2,77,0.00,CLR,,0.00,WeatherDisplay:10.37,2013-02-12 17:50:00,
2013-02-12 12:51:00,34.7,27.3,30.10,SW,221,8.8,11.5,74,0.00,CLR,,0.00,WeatherDisplay:10.37,2013-02-12 17:51:00,
2013-02-12 12:53:00,34.6,27.2,30.09,WSW,250,5.6,9.2,74,0.00,CLR,,0.00,WeatherDisplay:10.37,2013-02-12 17:53:00,
2013-02-12 12:55:00,34.6,27.5,30.09,SSW,210,7.9,9.2,75,0.00,CLR,,0.00,WeatherDisplay:10.37,2013-02-12 17:55:00,
2013-02-12 12:56:00,34.6,27.2,30.09,SW,229,8.0,10.4,74,0.00,CLR,,0.00,WeatherDisplay:10.37,2013-02-12 17:56:00,
2013-02-12 12:58:00,34.4,27.0,30.09,SW,219,8.8,11.5,74,0.00,CLR,,0.00,WeatherDisplay:10.37,2013-02-12 17:58:00,
2013-02-12 13:00:00,34.2,27.1,30.08,South,191,5.3,6.0,75,0.00,CLR,,0.00,WeatherDisplay:10.37,2013-02-12 18:00:00,
2013-02-12 13:01:00,34.2,27.1,30.08,South,189,4.5,6.9,75,0.00,CLR,,0.00,WeatherDisplay:10.37,2013-02-12 18:01:00,
2013-02-12 13:03:00,34.1,26.0,30.08,SW,234,3.0,6.9,72,0.00,CLR,,0.00,WeatherDisplay:10.37,2013-02-12 18:03:00,
2013-02-12 13:05:00,34.3,27.2,30.08,SW,227,7.0,9.2,75,0.00,CLR,,0.00,WeatherDisplay:10.37,2013-02-12 18:05:00,
2013-02-12 13:06:00,34.3,27.2,30.08,SW,222,5.2,9.2,75,0.00,CLR,,0.00,WeatherDisplay:10.37,2013-02-12 18:06:00,
2013-02-12 13:08:00,34.2,26.8,30.08,SSW,201,6.8,9.2,74,0.00,CLR,,0.00,WeatherDisplay:10.37,2013-02-12 18:08:00,
2013-02-12 13:10:00,34.3,27.2,30.08,SW,219,7.2,9.2,75,0.00,CLR,,0.00,WeatherDisplay:10.37,2013-02-12 18:10:00,
2013-02-12 13:11:00,34.3,27.2,30.08,WSW,242,6.5,9.2,75,0.00,CLR,,0.00,WeatherDisplay:10.37,2013-02-12 18:11:00,
2013-02-12 13:13:00,34.1,26.3,30.08,WSW,248,5.5,9.2,73,0.00,CLR,,0.00,WeatherDisplay:10.37,2013-02-12 18:13:00,
2013-02-12 13:15:00,33.9,26.2,30.08,SW,233,5.4,9.2,73,0.00,CLR,,0.00,WeatherDisplay:10.37,2013-02-12 18:15:00,
2013-02-12 13:16:00,33.8,26.4,30.08,SW,223,5.5,8.1,74,0.00,CLR,,0.00,WeatherDisplay:10.37,2013-02-12 18:16:00,
2013-02-12 13:18:00,33.5,26.1,30.08,WSW,249,7.4,8.1,74,0.00,CLR,,0.00,WeatherDisplay:10.37,2013-02-12 18:18:00,
2013-02-12 13:20:00,33.7,26.6,30.08,SSW,207,5.8,9.2,75,0.00,CLR,,0.00,WeatherDisplay:10.37,2013-02-12 18:20:00,
2013-02-12 13:21:00,33.8,27.0,30.07,SW,234,6.4,9.0,76,0.00,CLR,,0.00,WeatherDisplay:10.37,2013-02-12 18:21:00,
2013-02-12 13:23:00,34.3,27.2,30.07,WSW,254,6.8,9.2,75,0.00,CLR,,0.00,WeatherDisplay:10.37,2013-02-12 18:23:00,
2013-02-12 13:25:00,34.8,28.3,30.07,West,264,5.1,6.9,77,0.00,CLR,,0.00,WeatherDisplay:10.37,2013-02-12 18:25:00,
2013-02-12 13:26:00,34.9,27.8,30.07,SW,236,5.0,6.9,75,0.00,CLR,,0.00,WeatherDisplay:10.37,2013-02-12 18:26:00,
2013-02-12 13:27:00,35.0,27.9,30.07,SW,229,5.2,6.9,75,0.00,CLR,,0.00,WeatherDisplay:10.37,2013-02-12 18:27:00,
2013-02-12 13:28:00,34.9,26.8,30.07,WSW,240,3.4,5.8,72,0.00,CLR,,0.00,WeatherDisplay:10.37,2013-02-12 18:28:00,
2013-02-12 13:30:00,34.7,26.6,30.07,WSW,241,3.1,4.6,72,0.00,CLR,,0.00,WeatherDisplay:10.37,2013-02-12 18:30:00,
2013-02-12 13:32:00,34.7,26.9,30.07,SW,227,5.0,7.0,73,0.00,CLR,,0.00,WeatherDisplay:10.37,2013-02-12 18:32:00,
2013-02-12 13:34:00,34.7,27.3,30.07,WSW,249,7.4,9.2,74,0.00,CLR,,0.00,WeatherDisplay:10.37,2013-02-12 18:34:00,
2013-02-12 13:36:00,34.6,26.8,30.07,SW,221,5.0,6.9,73,0.00,CLR,,0.00,WeatherDisplay:10.37,2013-02-12 18:36:00,
2013-02-12 13:37:00,34.5,26.7,30.07,SSW,211,4.7,6.9,73,0.00,CLR,,0.00,WeatherDisplay:10.37,2013-02-12 18:37:00,
2013-02-12 13:39:00,34.6,27.2,30.07,SW,236,6.3,9.2,74,0.00,CLR,,0.00,WeatherDisplay:10.37,2013-02-12 18:39:00,
2013-02-12 13:41:00,34.8,27.0,30.07,SSW,213,6.6,10.4,73,0.00,CLR,,0.00,WeatherDisplay:10.37,2013-02-12 18:41:00,
2013-02-12 13:42:00,35.0,27.5,30.07,West,271,8.3,11.5,74,0.00,CLR,,0.00,WeatherDisplay:10.37,2013-02-12 18:42:00,
2013-02-12 13:44:00,34.9,26.8,30.07,SSW,211,7.2,9.2,72,0.00,CLR,,0.00,WeatherDisplay:10.37,2013-02-12 18:44:00,
2013-02-12 13:46:00,34.7,26.9,30.07,SSW,208,4.5,6.0,73,0.00,CLR,,0.00,WeatherDisplay:10.37,2013-02-12 18:46:00,
2013-02-12 13:47:00,34.7,26.9,30.07,SSW,208,5.2,7.0,73,0.00,CLR,,0.00,WeatherDisplay:10.37,2013-02-12 18:47:00,
2013-02-12 13:49:00,34.6,26.8,30.07,WSW,245,6.9,8.1,73,0.00,CLR,,0.00,WeatherDisplay:10.37,2013-02-12 18:49:00,
2013-02-12 13:51:00,34.9,27.8,30.08,SW,219,7.2,10.4,75,0.00,CLR,,0.00,WeatherDisplay:10.37,2013-02-12 18:51:00,
2013-02-12 13:52:00,35.1,28.0,30.07,WSW,242,6.2,9.2,75,0.00,CLR,,0.00,WeatherDisplay:10.37,2013-02-12 18:52:00,
2013-02-12 13:54:00,35.5,28.4,30.07,SSW,209,7.5,10.4,75,0.00,CLR,,0.00,WeatherDisplay:10.37,2013-02-12 18:54:00,
2013-02-12 13:56:00,35.9,28.4,30.08,SW,216,6.5,6.9,74,0.00,CLR,,0.00,WeatherDisplay:10.37,2013-02-12 18:56:00,
2013-02-12 13:57:00,35.9,28.4,30.08,SSW,200,6.6,9.2,74,0.00,CLR,,0.00,WeatherDisplay:10.37,2013-02-12 18:57:00,
2013-02-12 13:59:00,36.0,28.2,30.08,SSW,204,7.0,9.0,73,0.00,CLR,,0.00,WeatherDisplay:10.37,2013-02-12 18:59:00,
2013-02-12 14:01:00,35.8,27.7,30.08,SW,234,7.2,10.4,72,0.00,CLR,,0.00,WeatherDisplay:10.37,2013-02-12 19:01:00,
2013-02-12 14:02:00,35.7,27.6,30.08,WSW,253,7.2,10.0,72,0.00,CLR,,0.00,WeatherDisplay:10.37,2013-02-12 19:02:00,
2013-02-12 14:04:00,35.3,27.5,30.08,West,269,7.8,11.5,73,0.00,CLR,,0.00,WeatherDisplay:10.37,2013-02-12 19:04:00,
2013-02-12 14:06:00,35.1,27.3,30.07,West,259,7.0,11.5,73,0.00,CLR,,0.00,WeatherDisplay:10.37,2013-02-12 19:06:00,
2013-02-12 14:07:00,35.0,27.2,30.07,West,275,6.8,9.2,73,0.00,CLR,,0.00,WeatherDisplay:10.37,2013-02-12 19:07:00,
2013-02-12 14:08:00,35.0,27.2,30.07,West,267,5.7,9.2,73,0.00,CLR,,0.00,WeatherDisplay:10.37,2013-02-12 19:08:00,
2013-02-12 14:09:00,34.9,27.1,30.07,WSW,244,4.3,8.1,73,0.00,CLR,,0.00,WeatherDisplay:10.37,2013-02-12 19:09:00,
2013-02-12 14:12:00,35.0,27.5,30.07,WNW,282,5.8,10.4,74,0.00,CLR,,0.00,WeatherDisplay:10.37,2013-02-12 19:12:00,
2013-02-12 14:13:00,35.0,27.9,30.07,WSW,245,4.7,9.2,75,0.00,CLR,,0.00,WeatherDisplay:10.37,2013-02-12 19:13:00,
2013-02-12 14:15:00,35.1,27.7,30.07,West,263,5.0,10.0,74,0.00,CLR,,0.00,WeatherDisplay:10.37,2013-02-12 19:15:00,
2013-02-12 14:17:00,35.4,27.9,30.07,WSW,250,9.3,14.0,74,0.00,CLR,,0.00,WeatherDisplay:10.37,2013-02-12 19:17:00,
2013-02-12 14:18:00,35.4,27.9,30.07,West,275,10.8,10.8,74,0.00,CLR,,0.00,WeatherDisplay:10.37,2013-02-12 19:18:00,
2013-02-12 14:20:00,35.4,27.9,30.07,West,268,5.4,9.2,74,0.00,CLR,,0.00,WeatherDisplay:10.37,2013-02-12 19:20:00,
2013-02-12 14:22:00,35.5,28.0,30.06,WSW,254,3.9,6.9,74,0.00,CLR,,0.00,WeatherDisplay:10.37,2013-02-12 19:22:00,
2013-02-12 14:23:00,35.5,27.7,30.06,WSW,248,4.7,5.8,73,0.00,CLR,,0.00,WeatherDisplay:10.37,2013-02-12 19:23:00,
2013-02-12 14:25:00,35.5,27.7,30.06,WSW,240,7.1,9.0,73,0.00,CLR,,0.00,WeatherDisplay:10.37,2013-02-12 19:25:00,
2013-02-12 14:27:00,35.4,27.9,30.06,WSW,251,8.2,12.7,74,0.00,CLR,,0.00,WeatherDisplay:10.37,2013-02-12 19:27:00,
2013-02-12 14:28:00,35.3,27.5,30.06,WSW,239,6.1,9.2,73,0.00,CLR,,0.00,WeatherDisplay:10.37,2013-02-12 19:28:00,
2013-02-12 14:29:00,35.3,27.5,30.06,WSW,257,5.5,8.1,73,0.00,CLR,,0.00,WeatherDisplay:10.37,2013-02-12 19:29:00,
2013-02-12 14:30:00,35.1,27.6,30.06,West,260,7.2,9.2,74,0.00,CLR,,0.00,WeatherDisplay:10.37,2013-02-12 19:30:00,
2013-02-12 14:32:00,34.9,27.1,30.06,SW,219,8.5,11.5,73,0.00,CLR,,0.00,WeatherDisplay:10.37,2013-02-12 19:32:00,
2013-02-12 14:33:00,34.9,27.5,30.06,SW,236,7.6,11.5,74,0.00,CLR,,0.00,WeatherDisplay:10.37,2013-02-12 19:33:00,
2013-02-12 14:34:00,34.9,27.8,30.06,WSW,250,8.4,11.5,75,0.00,CLR,,0.00,WeatherDisplay:10.37,2013-02-12 19:34:00,
2013-02-12 14:35:00,34.9,27.8,30.06,WSW,246,4.9,11.5,75,0.00,CLR,,0.00,WeatherDisplay:10.37,2013-02-12 19:35:00,
2013-02-12 14:37:00,34.9,27.8,30.07,West,262,3.3,5.8,75,0.00,CLR,,0.00,WeatherDisplay:10.37,2013-02-12 19:37:00,
2013-02-12 14:38:00,34.9,27.8,30.07,West,264,3.7,6.0,75,0.00,CLR,,0.00,WeatherDisplay:10.37,2013-02-12 19:38:00,
2013-02-12 14:39:00,34.9,27.8,30.07,WSW,248,5.3,9.0,75,0.00,CLR,,0.00,WeatherDisplay:10.37,2013-02-12 19:39:00,
2013-02-12 14:40:00,34.9,27.8,30.07,WSW,244,6.4,11.5,75,0.00,CLR,,0.00,WeatherDisplay:10.37,2013-02-12 19:40:00,
2013-02-12 14:42:00,34.9,27.8,30.07,WSW,255,5.0,9.2,75,0.00,CLR,,0.00,WeatherDisplay:10.37,2013-02-12 19:42:00,
2013-02-12 14:43:00,35.0,28.2,30.07,WSW,253,6.9,10.4,76,0.00,CLR,,0.00,WeatherDisplay:10.37,2013-02-12 19:43:00,
2013-02-12 14:45:00,35.0,28.2,30.07,WSW,249,9.0,12.0,76,0.00,CLR,,0.00,WeatherDisplay:10.37,2013-02-12 19:45:00,
2013-02-12 14:46:00,35.0,28.2,30.08,SW,221,6.4,11.5,76,0.00,CLR,,0.00,WeatherDisplay:10.37,2013-02-12 19:46:00,
2013-02-12 14:47:00,35.1,28.3,30.08,WSW,252,5.7,8.1,76,0.00,CLR,,0.00,WeatherDisplay:10.37,2013-02-12 19:47:00,
2013-02-12 14:48:00,35.1,28.3,30.08,WNW,286,5.6,8.1,76,0.00,CLR,,0.00,WeatherDisplay:10.37,2013-02-12 19:48:00,
2013-02-12 14:50:00,35.1,28.0,30.08,WSW,251,7.0,9.0,75,0.00,CLR,,0.00,WeatherDisplay:10.37,2013-02-12 19:50:00,
2013-02-12 14:51:00,35.2,28.1,30.08,SSW,202,6.4,10.4,75,0.00,CLR,,0.00,WeatherDisplay:10.37,2013-02-12 19:51:00,
2013-02-12 14:52:00,35.2,28.1,30.08,SSW,198,8.7,11.5,75,0.00,CLR,,0.00,WeatherDisplay:10.37,2013-02-12 19:52:00,
2013-02-12 14:53:00,35.2,28.1,30.08,SW,229,8.3,12.7,75,0.00,CLR,,0.00,WeatherDisplay:10.37,2013-02-12 19:53:00,
2013-02-12 14:55:00,35.0,27.5,30.08,SW,234,8.0,12.7,74,0.00,CLR,,0.00,WeatherDisplay:10.37,2013-02-12 19:55:00,
2013-02-12 14:56:00,34.9,27.8,30.08,SW,227,10.0,15.0,75,0.00,CLR,,0.00,WeatherDisplay:10.37,2013-02-12 19:56:00,
2013-02-12 14:58:00,34.7,27.6,30.08,WSW,245,9.9,12.7,75,0.00,CLR,,0.00,WeatherDisplay:10.37,2013-02-12 19:58:00,
2013-02-12 15:00:00,34.7,27.9,30.08,SW,221,11.6,11.6,76,0.00,CLR,,0.00,WeatherDisplay:10.37,2013-02-12 20:00:00,
2013-02-12 15:01:00,34.6,27.5,30.08,SW,230,8.6,12.0,75,0.00,CLR,,0.00,WeatherDisplay:10.37,2013-02-12 20:01:00,
2013-02-12 15:03:00,34.6,27.8,30.08,WSW,238,7.8,10.4,76,0.00,CLR,,0.00,WeatherDisplay:10.37,2013-02-12 20:03:00,
2013-02-12 15:05:00,34.5,27.4,30.09,SSW,205,7.5,10.4,75,0.00,CLR,,0.00,WeatherDisplay:10.37,2013-02-12 20:05:00,
2013-02-12 15:06:00,34.4,27.6,30.08,SSW,213,6.9,9.2,76,0.00,CLR,,0.00,WeatherDisplay:10.37,2013-02-12 20:06:00,
2013-02-12 15:08:00,34.4,27.6,30.08,SW,236,10.1,13.8,76,0.00,CLR,,0.00,WeatherDisplay:10.37,2013-02-12 20:08:00,
2013-02-12 15:10:00,34.4,27.6,30.08,SW,224,7.2,10.4,76,0.00,CLR,,0.00,WeatherDisplay:10.37,2013-02-12 20:10:00,
2013-02-12 15:11:00,34.4,27.9,30.08,WSW,250,7.7,11.5,77,0.00,CLR,,0.00,WeatherDisplay:10.37,2013-02-12 20:11:00,
2013-02-12 15:13:00,34.3,27.5,30.08,WSW,241,9.9,11.5,76,0.00,CLR,,0.00,WeatherDisplay:10.37,2013-02-12 20:13:00,
2013-02-12 15:15:00,34.2,27.7,30.08,WSW,238,8.8,11.5,77,0.00,CLR,,0.00,WeatherDisplay:10.37,2013-02-12 20:15:00,
2013-02-12 15:16:00,34.1,27.6,30.08,WSW,256,7.9,10.4,77,0.00,CLR,,0.00,WeatherDisplay:10.37,2013-02-12 20:16:00,
2013-02-12 15:18:00,34.0,27.5,30.08,SW,234,5.5,8.1,77,0.00,CLR,,0.00,WeatherDisplay:10.37,2013-02-12 20:18:00,
2013-02-12 15:19:00,34.0,27.9,30.08,SSW,209,7.0,8.1,78,0.00,CLR,,0.00,WeatherDisplay:10.37,2013-02-12 20:19:00,
2013-02-12 15:20:00,34.1,28.0,30.08,SW,215,8.0,14.0,78,0.00,CLR,,0.00,WeatherDisplay:10.37,2013-02-12 20:20:00,
2013-02-12 15:21:00,34.0,27.9,30.08,SSW,203,8.7,13.8,78,0.00,CLR,,0.00,WeatherDisplay:10.37,2013-02-12 20:21:00,
2013-02-12 15:23:00,33.9,27.8,30.08,SSW,212,7.9,10.4,78,0.00,CLR,,0.00,WeatherDisplay:10.37,2013-02-12 20:23:00,
2013-02-12 15:24:00,33.8,27.7,30.09,SW,218,6.7,8.1,78,0.00,CLR,,0.00,WeatherDisplay:10.37,2013-02-12 20:24:00,
2013-02-12 15:25:00,33.8,28.0,30.09,SSW,213,5.5,9.2,79,0.00,CLR,,0.00,WeatherDisplay:10.37,2013-02-12 20:25:00,
2013-02-12 15:27:00,33.8,28.0,30.09,SSW,193,7.8,9.2,79,0.00,CLR,,0.00,WeatherDisplay:10.37,2013-02-12 20:27:00,
2013-02-12 15:28:00,33.8,28.0,30.09,WSW,247,8.9,12.0,79,0.00,CLR,,0.00,WeatherDisplay:10.37,2013-02-12 20:28:00,
2013-02-12 15:29:00,33.8,27.7,30.09,SW,220,9.2,12.7,78,0.00,CLR,,0.00,WeatherDisplay:10.37,2013-02-12 20:29:00,
2013-02-12 15:30:00,33.7,27.6,30.09,SSW,192,7.9,11.5,78,0.00,CLR,,0.00,WeatherDisplay:10.37,2013-02-12 20:30:00,
2013-02-12 15:32:00,33.7,27.6,30.09,SSW,212,7.4,11.5,78,0.00,CLR,,0.00,WeatherDisplay:10.37,2013-02-12 20:32:00,
2013-02-12 15:33:00,33.6,27.5,30.09,SW,216,9.5,12.7,78,0.00,CLR,,0.00,WeatherDisplay:10.37,2013-02-12 20:33:00,
2013-02-12 15:34:00,33.6,27.5,30.09,SW,236,7.7,11.5,78,0.00,CLR,,0.00,WeatherDisplay:10.37,2013-02-12 20:34:00,
2013-02-12 15:36:00,33.6,27.8,30.09,SW,227,9.6,11.5,79,0.00,CLR,,0.00,WeatherDisplay:10.37,2013-02-12 20:36:00,
2013-02-12 15:37:00,33.6,27.5,30.09,SW,223,10.0,11.5,78,0.00,CLR,,0.00,WeatherDisplay:10.37,2013-02-12 20:37:00,
2013-02-12 15:38:00,33.5,27.1,30.09,WSW,240,10.8,12.7,77,0.00,CLR,,0.00,WeatherDisplay:10.37,2013-02-12 20:38:00,
2013-02-12 15:39:00,33.4,27.0,30.09,SW,235,8.9,12.7,77,0.00,CLR,,0.00,WeatherDisplay:10.37,2013-02-12 20:39:00,
2013-02-12 15:41:00,33.3,26.9,30.09,SW,228,9.4,12.0,77,0.00,CLR,,0.00,WeatherDisplay:10.37,2013-02-12 20:41:00,
2013-02-12 15:43:00,33.3,27.2,30.09,SW,223,10.0,12.7,78,0.00,CLR,,0.00,WeatherDisplay:10.37,2013-02-12 20:43:00,
2013-02-12 15:44:00,33.2,27.1,30.09,SW,231,10.7,10.7,78,0.00,CLR,,0.00,WeatherDisplay:10.37,2013-02-12 20:44:00,
2013-02-12 15:46:00,33.2,27.1,30.09,WSW,242,9.3,12.7,78,0.00,CLR,,0.00,WeatherDisplay:10.37,2013-02-12 20:46:00,
2013-02-12 15:48:00,33.0,26.9,30.09,SW,223,8.2,10.4,78,0.00,CLR,,0.00,WeatherDisplay:10.37,2013-02-12 20:48:00,
2013-02-12 15:49:00,33.0,26.9,30.09,WSW,257,8.0,11.5,78,0.00,CLR,,0.00,WeatherDisplay:10.37,2013-02-12 20:49:00,
2013-02-12 15:50:00,33.0,26.9,30.09,WSW,252,7.5,11.5,78,0.00,CLR,,0.00,WeatherDisplay:10.37,2013-02-12 20:50:00,
2013-02-12 15:51:00,33.0,27.2,30.09,WSW,258,6.3,8.0,79,0.00,CLR,,0.00,WeatherDisplay:10.37,2013-02-12 20:51:00,
2013-02-12 15:53:00,33.1,27.3,30.09,West,271,6.9,10.4,79,0.00,CLR,,0.00,WeatherDisplay:10.37,2013-02-12 20:53:00,
2013-02-12 15:54:00,33.1,27.0,30.08,WSW,254,8.5,11.5,78,0.00,CLR,,0.00,WeatherDisplay:10.37,2013-02-12 20:54:00,
2013-02-12 15:55:00,33.1,27.0,30.08,WSW,253,10.6,13.8,78,0.00,CLR,,0.00,WeatherDisplay:10.37,2013-02-12 20:55:00,
2013-02-12 15:56:00,33.0,26.9,30.09,West,267,11.0,13.8,78,0.00,CLR,,0.00,WeatherDisplay:10.37,2013-02-12 20:56:00,
2013-02-12 15:58:00,32.9,26.8,30.09,WSW,250,11.3,12.7,78,0.00,CLR,,0.00,WeatherDisplay:10.37,2013-02-12 20:58:00,
2013-02-12 15:59:00,32.8,26.7,30.09,West,263,9.0,12.7,78,0.00,CLR,,0.00,WeatherDisplay:10.37,2013-02-12 20:59:00,
2013-02-12 16:01:00,32.9,27.1,30.09,WSW,247,6.9,9.2,79,0.00,CLR,,0.00,WeatherDisplay:10.37,2013-02-12 21:01:00,
2013-02-12 16:04:00,32.9,27.1,30.09,SW,233,9.7,12.0,79,0.00,CLR,,0.00,WeatherDisplay:10.37,2013-02-12 21:04:00,
2013-02-12 16:06:00,32.8,27.0,30.09,SW,223,8.0,11.5,79,0.00,CLR,,0.00,WeatherDisplay:10.37,2013-02-12 21:06:00,
2013-02-12 16:09:00,32.7,26.9,30.09,SSW,192,8.7,11.5,79,0.00,CLR,,0.00,WeatherDisplay:10.37,2013-02-12 21:09:00,
2013-02-12 16:11:00,32.6,26.8,30.09,SW,236,8.2,11.5,79,0.00,CLR,,0.00,WeatherDisplay:10.37,2013-02-12 21:11:00,
2013-02-12 16:14:00,32.6,26.8,30.08,West,267,9.7,11.5,79,0.00,CLR,,0.00,WeatherDisplay:10.37,2013-02-12 21:14:00,
2013-02-12 16:16:00,32.5,26.7,30.08,WSW,257,10.8,13.8,79,0.00,CLR,,0.00,WeatherDisplay:10.37,2013-02-12 21:16:00,
2013-02-12 16:19:00,32.5,27.0,30.08,WSW,255,10.0,12.7,80,0.00,CLR,,0.00,WeatherDisplay:10.37,2013-02-12 21:19:00,
2013-02-12 16:21:00,32.5,26.7,30.08,SW,223,9.1,11.5,79,0.00,CLR,,0.00,WeatherDisplay:10.37,2013-02-12 21:21:00,
2013-02-12 16:22:00,32.4,26.6,30.08,WSW,239,8.6,11.5,79,0.00,CLR,,0.00,WeatherDisplay:10.37,2013-02-12 21:22:00,
2013-02-12 16:24:00,32.4,26.6,30.08,SW,231,9.7,12.7,79,0.00,CLR,,0.00,WeatherDisplay:10.37,2013-02-12 21:24:00,
2013-02-12 16:26:00,32.4,26.6,30.08,SW,223,8.3,11.5,79,0.00,CLR,,0.00,WeatherDisplay:10.37,2013-02-12 21:26:00,
2013-02-12 16:27:00,32.4,26.6,30.08,WSW,240,9.2,12.7,79,0.00,CLR,,0.00,WeatherDisplay:10.37,2013-02-12 21:27:00,
2013-02-12 16:29:00,32.3,26.8,30.08,SW,234,8.5,12.7,80,0.00,CLR,,0.00,WeatherDisplay:10.37,2013-02-12 21:29:00,
2013-02-12 16:32:00,32.2,26.4,30.08,West,263,7.4,10.4,79,0.00,CLR,,0.00,WeatherDisplay:10.37,2013-02-12 21:32:00,
2013-02-12 16:34:00,32.2,26.7,30.08,SW,225,6.3,9.2,80,0.00,CLR,,0.00,WeatherDisplay:10.37,2013-02-12 21:34:00,
2013-02-12 16:37:00,32.2,26.7,30.08,SSW,211,8.3,11.5,80,0.00,CLR,,0.00,WeatherDisplay:10.37,2013-02-12 21:37:00,
2013-02-12 16:39:00,32.2,27.0,30.08,SW,218,7.8,11.5,81,0.00,CLR,,0.00,WeatherDisplay:10.37,2013-02-12 21:39:00,
2013-02-12 16:40:00,32.2,27.0,30.08,SW,215,9.5,11.5,81,0.00,CLR,,0.00,WeatherDisplay:10.37,2013-02-12 21:40:00,
2013-02-12 16:42:00,32.1,26.9,30.08,WSW,240,9.1,11.5,81,0.00,CLR,,0.00,WeatherDisplay:10.37,2013-02-12 21:42:00,
2013-02-12 16:44:00,32.0,26.8,30.08,WSW,241,6.3,9.2,81,0.00,CLR,,0.00,WeatherDisplay:10.37,2013-02-12 21:44:00,
2013-02-12 16:45:00,32.0,26.8,30.08,SW,231,6.0,13.0,81,0.00,CLR,,0.00,WeatherDisplay:10.37,2013-02-12 21:45:00,
2013-02-12 16:47:00,32.0,26.5,30.08,SW,225,6.3,9.2,80,0.00,CLR,,0.00,WeatherDisplay:10.37,2013-02-12 21:47:00,
2013-02-12 16:50:00,31.9,26.7,30.08,WSW,255,8.0,11.5,81,0.00,CLR,,0.00,WeatherDisplay:10.37,2013-02-12 21:50:00,
2013-02-12 16:51:00,31.9,26.7,30.08,WSW,249,8.9,11.5,81,0.00,CLR,,0.00,WeatherDisplay:10.37,2013-02-12 21:51:00,
2013-02-12 16:52:00,31.8,26.6,30.08,WSW,257,8.4,11.5,81,0.00,CLR,,0.00,WeatherDisplay:10.37,2013-02-12 21:52:00,
2013-02-12 16:53:00,31.8,26.6,30.08,West,259,7.9,11.5,81,0.00,CLR,,0.00,WeatherDisplay:10.37,2013-02-12 21:53:00,
2013-02-12 16:55:00,31.7,26.5,30.08,WSW,241,10.0,12.7,81,0.00,CLR,,0.00,WeatherDisplay:10.37,2013-02-12 21:55:00,
2013-02-12 16:56:00,31.6,26.4,30.08,WSW,244,10.5,12.7,81,0.00,CLR,,0.00,WeatherDisplay:10.37,2013-02-12 21:56:00,
2013-02-12 16:57:00,31.5,26.3,30.08,WSW,241,8.2,11.5,81,0.00,CLR,,0.00,WeatherDisplay:10.37,2013-02-12 21:57:00,
2013-02-12 16:59:00,31.5,26.6,30.08,WSW,240,7.2,10.4,82,0.00,CLR,,0.00,WeatherDisplay:10.37,2013-02-12 21:59:00,
2013-02-12 17:00:00,31.5,26.6,30.08,SW,231,8.3,11.5,82,0.00,CLR,,0.00,WeatherDisplay:10.37,2013-02-12 22:00:00,
2013-02-12 17:01:00,31.5,26.6,30.08,SW,227,7.7,11.5,82,0.00,CLR,,0.00,WeatherDisplay:10.37,2013-02-12 22:01:00,
2013-02-12 17:03:00,31.5,26.6,30.08,SW,215,7.9,11.5,82,0.00,CLR,,0.00,WeatherDisplay:10.37,2013-02-12 22:03:00,
2013-02-12 17:04:00,31.5,26.6,30.08,SSW,205,9.0,11.5,82,0.00,CLR,,0.00,WeatherDisplay:10.37,2013-02-12 22:04:00,
2013-02-12 17:05:00,31.4,26.5,30.08,SW,235,10.4,12.7,82,0.00,CLR,,0.00,WeatherDisplay:10.37,2013-02-12 22:05:00,
2013-02-12 17:06:00,31.4,26.2,30.07,SW,221,11.5,13.8,81,0.00,CLR,,0.00,WeatherDisplay:10.37,2013-02-12 22:06:00,
2013-02-12 17:09:00,31.3,26.1,30.07,SSW,213,6.9,11.5,81,0.00,CLR,,0.00,WeatherDisplay:10.37,2013-02-12 22:09:00,
2013-02-12 17:10:00,31.2,26.0,30.07,SW,230,8.6,11.5,81,0.00,CLR,,0.00,WeatherDisplay:10.37,2013-02-12 22:10:00,
2013-02-12 17:11:00,31.2,26.3,30.07,SW,227,8.2,11.0,82,0.00,CLR,,0.00,WeatherDisplay:10.37,2013-02-12 22:11:00,
2013-02-12 17:14:00,31.1,26.2,30.07,SSW,211,6.6,9.2,82,0.00,CLR,,0.00,WeatherDisplay:10.37,2013-02-12 22:14:00,
2013-02-12 17:15:00,31.1,26.2,30.07,SSW,210,9.9,13.8,82,0.00,CLR,,0.00,WeatherDisplay:10.37,2013-02-12 22:15:00,
2013-02-12 17:16:00,31.1,26.2,30.07,SW,223,8.0,11.5,82,0.00,CLR,,0.00,WeatherDisplay:10.37,2013-02-12 22:16:00,
2013-02-12 17:19:00,31.1,26.2,30.07,SW,233,8.6,11.5,82,0.00,CLR,,0.00,WeatherDisplay:10.37,2013-02-12 22:19:00,
2013-02-12 17:20:00,31.1,26.2,30.07,SW,221,7.7,11.5,82,0.00,CLR,,0.00,WeatherDisplay:10.37,2013-02-12 22:20:00,
2013-02-12 17:21:00,31.1,26.2,30.07,SW,226,10.6,13.0,82,0.00,CLR,,0.00,WeatherDisplay:10.37,2013-02-12 22:21:00,
2013-02-12 17:25:00,31.1,26.2,30.07,SW,223,8.0,13.0,82,0.00,CLR,,0.00,WeatherDisplay:10.37,2013-02-12 22:25:00,
2013-02-12 17:26:00,31.2,26.3,30.07,SW,232,8.9,11.5,82,0.00,CLR,,0.00,WeatherDisplay:10.37,2013-02-12 22:26:00,
2013-02-12 17:30:00,31.2,26.0,30.06,SW,231,8.3,11.5,81,0.00,CLR,,0.00,WeatherDisplay:10.37,2013-02-12 22:30:00,
2013-02-12 17:31:00,31.1,26.0,30.06,SW,228,7.2,11.5,81,0.00,CLR,,0.00,WeatherDisplay:10.37,2013-02-12 22:31:00,
2013-02-12 17:35:00,31.1,26.0,30.07,SW,228,7.8,12.7,81,0.00,CLR,,0.00,WeatherDisplay:10.37,2013-02-12 22:35:00,
2013-02-12 17:36:00,31.1,26.2,30.06,SW,232,9.8,13.0,82,0.00,CLR,,0.00,WeatherDisplay:10.37,2013-02-12 22:36:00,
2013-02-12 17:40:00,31.0,25.9,30.07,SW,224,11.5,16.1,81,0.00,CLR,,0.00,WeatherDisplay:10.37,2013-02-12 22:40:00,
2013-02-12 17:41:00,31.0,25.9,30.07,SW,230,11.3,13.8,81,0.00,CLR,,0.00,WeatherDisplay:10.37,2013-02-12 22:41:00,
2013-02-12 17:45:00,30.9,26.1,30.06,WSW,251,9.9,11.5,82,0.00,CLR,,0.00,WeatherDisplay:10.37,2013-02-12 22:45:00,
2013-02-12 17:46:00,30.9,26.1,30.06,WSW,242,10.0,12.7,82,0.00,CLR,,0.00,WeatherDisplay:10.37,2013-02-12 22:46:00,
2013-02-12 17:47:00,30.9,26.1,30.07,SW,229,8.0,12.7,82,0.00,CLR,,0.00,WeatherDisplay:10.37,2013-02-12 22:47:00,
2013-02-12 17:51:00,30.9,26.1,30.07,SW,226,8.2,11.5,82,0.00,CLR,,0.00,WeatherDisplay:10.37,2013-02-12 22:51:00,
2013-02-12 17:52:00,30.8,26.0,30.06,SW,230,8.1,11.5,82,0.00,CLR,,0.00,WeatherDisplay:10.37,2013-02-12 22:52:00,
2013-02-12 17:56:00,30.8,26.2,30.06,SSW,194,6.1,10.0,83,0.00,CLR,,0.00,WeatherDisplay:10.37,2013-02-12 22:56:00,
2013-02-12 17:58:00,30.8,26.0,30.06,SW,215,7.4,10.4,82,0.00,CLR,,0.00,WeatherDisplay:10.37,2013-02-12 22:58:00,
2013-02-12 18:01:00,30.8,26.0,30.06,SW,226,9.6,12.7,82,0.00,CLR,,0.00,WeatherDisplay:10.37,2013-02-12 23:01:00,
2013-02-12 18:03:00,30.7,25.9,30.06,WSW,238,8.8,11.5,82,0.00,CLR,,0.00,WeatherDisplay:10.37,2013-02-12 23:03:00,
2013-02-12 18:06:00,30.7,26.1,30.06,WSW,254,4.7,6.9,83,0.00,CLR,,0.00,WeatherDisplay:10.37,2013-02-12 23:06:00,
2013-02-12 18:08:00,30.8,26.2,30.06,WSW,240,6.6,9.2,83,0.00,CLR,,0.00,WeatherDisplay:10.37,2013-02-12 23:08:00,
2013-02-12 19:21:00,30.1,25.8,30.05,SW,234,6.0,11.5,84,0.04,CLR,,0.04,WeatherDisplay:10.37,2013-02-13 00:21:00,
2013-02-12 19:22:00,30.1,25.8,30.05,SW,233,4.5,11.5,84,0.04,CLR,,0.04,WeatherDisplay:10.37,2013-02-13 00:22:00,
2013-02-12 19:26:00,30.1,25.8,30.05,SW,233,5.5,6.9,84,0.04,CLR,,0.04,WeatherDisplay:10.37,2013-02-13 00:26:00,
2013-02-12 19:27:00,30.1,25.8,30.05,WSW,243,5.5,6.9,84,0.04,CLR,,0.04,WeatherDisplay:10.37,2013-02-13 00:27:00,
2013-02-12 19:31:00,30.0,25.5,30.05,WSW,251,7.0,11.5,83,0.04,CLR,,0.04,WeatherDisplay:10.37,2013-02-13 00:31:00,
2013-02-12 19:32:00,30.0,25.5,30.05,WSW,256,7.0,11.5,83,0.04,CLR,,0.04,WeatherDisplay:10.37,2013-02-13 00:32:00,
2013-02-12 19:36:00,29.9,25.7,30.05,West,261,6.4,7.0,84,0.04,CLR,,0.04,WeatherDisplay:10.37,2013-02-13 00:36:00,
2013-02-12 19:37:00,29.9,25.7,30.05,WSW,258,6.5,8.1,84,0.04,CLR,,0.04,WeatherDisplay:10.37,2013-02-13 00:37:00,
2013-02-12 19:42:00,30.0,25.8,30.06,West,279,3.7,4.6,84,0.04,CLR,,0.04,WeatherDisplay:10.37,2013-02-13 00:42:00,
2013-02-12 19:47:00,30.0,25.5,30.05,West,265,2.9,4.6,83,0.04,CLR,,0.04,WeatherDisplay:10.37,2013-02-13 00:47:00,
2013-02-12 19:52:00,29.9,25.4,30.05,WNW,291,4.2,6.9,83,0.00,CLR,,0.04,WeatherDisplay:10.37,2013-02-13 00:52:00,
2013-02-12 19:53:00,29.9,25.1,30.05,West,275,3.8,9.2,82,0.00,CLR,,0.04,WeatherDisplay:10.37,2013-02-13 00:53:00,
2013-02-12 19:57:00,29.9,25.1,30.05,WNW,294,6.1,9.2,82,0.00,CLR,,0.04,WeatherDisplay:10.37,2013-02-13 00:57:00,
2013-02-12 19:58:00,29.8,25.0,30.05,NW,309,4.5,6.9,82,0.00,CLR,,0.04,WeatherDisplay:10.37,2013-02-13 00:58:00,
2013-02-12 20:02:00,29.8,25.0,30.05,West,280,3.1,5.8,82,0.00,CLR,,0.04,WeatherDisplay:10.37,2013-02-13 01:02:00,
2013-02-12 20:03:00,29.7,24.9,30.05,WNW,292,3.4,5.8,82,0.00,CLR,,0.04,WeatherDisplay:10.37,2013-02-13 01:03:00,
2013-02-12 20:07:00,29.7,24.9,30.04,WNW,290,4.8,6.9,82,0.00,CLR,,0.04,WeatherDisplay:10.37,2013-02-13 01:07:00,
2013-02-12 20:08:00,29.7,24.9,30.04,WNW,302,4.1,6.9,82,0.00,CLR,,0.04,WeatherDisplay:10.37,2013-02-13 01:08:00,
2013-02-12 20:12:00,29.7,24.9,30.04,WNW,290,4.3,5.8,82,0.00,CLR,,0.04,WeatherDisplay:10.37,2013-02-13 01:12:00,
2013-02-12 20:13:00,29.7,24.9,30.04,WNW,299,3.2,4.6,82,0.00,CLR,,0.04,WeatherDisplay:10.37,2013-02-13 01:13:00,
2013-02-12 20:17:00,29.7,24.9,30.05,WSW,257,2.0,5.0,82,0.00,CLR,,0.04,WeatherDisplay:10.37,2013-02-13 01:17:00,
2013-02-12 20:18:00,29.7,25.2,30.05,WSW,258,3.0,4.0,83,0.00,CLR,,0.04,WeatherDisplay:10.37,2013-02-13 01:18:00,
2013-02-12 20:22:00,29.7,24.9,30.04,West,262,4.2,9.2,82,0.00,CLR,,0.04,WeatherDisplay:10.37,2013-02-13 01:22:00,
2013-02-12 20:23:00,29.7,24.9,30.04,West,269,4.0,5.8,82,0.00,CLR,,0.04,WeatherDisplay:10.37,2013-02-13 01:23:00,
2013-02-12 20:27:00,29.7,24.9,30.04,West,268,5.3,6.9,82,0.00,CLR,,0.04,WeatherDisplay:10.37,2013-02-13 01:27:00,
2013-02-12 20:28:00,29.7,24.9,30.04,WSW,250,4.3,6.9,82,0.00,CLR,,0.04,WeatherDisplay:10.37,2013-02-13 01:28:00,
2013-02-12 20:29:00,29.7,24.9,30.04,WSW,248,4.6,6.9,82,0.00,CLR,,0.04,WeatherDisplay:10.37,2013-02-13 01:29:00,
2013-02-12 20:32:00,29.7,24.9,30.04,WSW,250,5.5,6.9,82,0.00,CLR,,0.04,WeatherDisplay:10.37,2013-02-13 01:32:00,
2013-02-12 20:33:00,29.7,24.9,30.04,WSW,237,5.4,5.8,82,0.00,CLR,,0.04,WeatherDisplay:10.37,2013-02-13 01:33:00,
2013-02-12 20:34:00,29.7,24.9,30.04,WSW,248,5.4,7.0,82,0.00,CLR,,0.04,WeatherDisplay:10.37,2013-02-13 01:34:00,
2013-02-12 20:37:00,29.7,25.2,30.04,West,261,5.0,8.1,83,0.00,CLR,,0.04,WeatherDisplay:10.37,2013-02-13 01:37:00,
2013-02-12 20:38:00,29.7,25.2,30.04,WSW,246,4.2,6.9,83,0.00,CLR,,0.04,WeatherDisplay:10.37,2013-02-13 01:38:00,
2013-02-12 20:39:00,29.7,25.2,30.04,WSW,242,4.0,5.0,83,0.00,CLR,,0.04,WeatherDisplay:10.37,2013-02-13 01:39:00,
2013-02-12 20:42:00,29.7,25.2,30.04,WSW,251,5.0,6.0,83,0.00,CLR,,0.04,WeatherDisplay:10.37,2013-02-13 01:42:00,
2013-02-12 20:43:00,29.7,24.9,30.04,WSW,251,4.4,7.0,82,0.00,CLR,,0.04,WeatherDisplay:10.37,2013-02-13 01:43:00,
2013-02-12 20:44:00,29.6,24.8,30.04,West,260,5.4,9.2,82,0.00,CLR,,0.04,WeatherDisplay:10.37,2013-02-13 01:44:00,
2013-02-12 20:47:00,29.7,25.2,30.04,West,261,2.8,4.6,83,0.00,CLR,,0.04,WeatherDisplay:10.37,2013-02-13 01:47:00,
2013-02-12 20:49:00,29.7,25.2,30.04,West,277,2.6,5.0,83,0.00,CLR,,0.04,WeatherDisplay:10.37,2013-02-13 01:49:00,
2013-02-12 20:53:00,29.7,25.2,30.04,West,273,5.5,8.1,83,0.00,CLR,,0.04,WeatherDisplay:10.37,2013-02-13 01:53:00,
2013-02-12 20:54:00,29.7,24.9,30.04,West,273,5.4,10.4,82,0.00,CLR,,0.04,WeatherDisplay:10.37,2013-02-13 01:54:00,
2013-02-12 20:58:00,29.7,24.9,30.04,WNW,298,2.4,3.5,82,0.00,CLR,,0.04,WeatherDisplay:10.37,2013-02-13 01:58:00,
2013-02-12 20:59:00,29.7,24.9,30.04,WNW,300,3.2,4.6,82,0.00,CLR,,0.04,WeatherDisplay:10.37,2013-02-13 01:59:00,
2013-02-12 21:00:00,29.7,24.9,30.04,NW,310,2.4,3.5,82,0.00,CLR,,0.04,WeatherDisplay:10.37,2013-02-13 02:00:00,
2013-02-12 21:03:00,29.7,24.9,30.04,West,277,2.7,4.6,82,0.00,CLR,,0.04,WeatherDisplay:10.37,2013-02-13 02:03:00,
2013-02-12 21:04:00,29.7,24.9,30.04,WNW,294,1.9,4.0,82,0.00,CLR,,0.04,WeatherDisplay:10.37,2013-02-13 02:04:00,
2013-02-12 21:05:00,29.7,24.9,30.03,West,275,2.5,4.6,82,0.00,CLR,,0.04,WeatherDisplay:10.37,2013-02-13 02:05:00,
2013-02-12 21:08:00,29.8,25.3,30.04,WNW,297,2.5,5.0,83,0.00,CLR,,0.04,WeatherDisplay:10.37,2013-02-13 02:08:00,
2013-02-12 21:09:00,29.8,25.3,30.04,West,278,3.3,4.6,83,0.00,CLR,,0.04,WeatherDisplay:10.37,2013-02-13 02:09:00,
2013-02-12 21:10:00,29.8,25.3,30.04,NW,315,1.8,4.0,83,0.00,CLR,,0.04,WeatherDisplay:10.37,2013-02-13 02:10:00,
2013-02-12 21:13:00,29.8,25.3,30.03,West,273,2.5,4.0,83,0.00,CLR,,0.04,WeatherDisplay:10.37,2013-02-13 02:13:00,
2013-02-12 21:14:00,29.8,25.3,30.03,NW,306,2.4,3.5,83,0.00,CLR,,0.04,WeatherDisplay:10.37,2013-02-13 02:14:00,
2013-02-12 21:16:00,29.8,25.3,30.03,WNW,291,2.3,3.5,83,0.00,CLR,,0.04,WeatherDisplay:10.37,2013-02-13 02:16:00,
2013-02-12 21:18:00,29.7,25.2,30.03,NW,304,3.2,5.8,83,0.00,CLR,,0.04,WeatherDisplay:10.37,2013-02-13 02:18:00,
2013-02-12 21:19:00,29.8,25.3,30.03,WNW,300,4.4,4.6,83,0.00,CLR,,0.04,WeatherDisplay:10.37,2013-02-13 02:19:00,
2013-02-12 21:20:00,29.8,25.3,30.03,NW,306,4.3,5.8,83,0.00,CLR,,0.04,WeatherDisplay:10.37,2013-02-13 02:20:00,
2013-02-12 21:21:00,29.7,25.2,30.03,WNW,300,4.8,6.9,83,0.00,CLR,,0.04,WeatherDisplay:10.37,2013-02-13 02:21:00,
2013-02-12 21:23:00,29.7,24.9,30.03,WNW,289,4.8,5.8,82,0.00,CLR,,0.04,WeatherDisplay:10.37,2013-02-13 02:23:00,
2013-02-12 21:25:00,29.7,24.9,30.03,WNW,300,3.0,7.0,82,0.00,CLR,,0.04,WeatherDisplay:10.37,2013-02-13 02:25:00,
2013-02-12 21:26:00,29.7,24.9,30.03,West,281,5.2,8.1,82,0.00,CLR,,0.04,WeatherDisplay:10.37,2013-02-13 02:26:00,
2013-02-12 21:29:00,29.7,24.9,30.03,West,281,2.9,3.5,82,0.00,CLR,,0.04,WeatherDisplay:10.37,2013-02-13 02:29:00,
2013-02-12 21:30:00,29.6,24.8,30.03,West,279,3.2,4.6,82,0.00,CLR,,0.04,WeatherDisplay:10.37,2013-02-13 02:30:00,
2013-02-12 21:32:00,29.6,24.8,30.03,WNW,282,3.5,4.0,82,0.00,CLR,,0.04,WeatherDisplay:10.37,2013-02-13 02:32:00,
2013-02-12 21:34:00,29.6,25.1,30.03,WSW,252,6.6,9.0,83,0.00,CLR,,0.04,WeatherDisplay:10.37,2013-02-13 02:34:00,
2013-02-12 21:35:00,29.6,24.8,30.02,WSW,247,6.0,9.2,82,0.00,CLR,,0.04,WeatherDisplay:10.37,2013-02-13 02:35:00,
2013-02-12 21:37:00,29.6,25.1,30.02,West,273,3.4,5.8,83,0.00,CLR,,0.04,WeatherDisplay:10.37,2013-02-13 02:37:00,
2013-02-12 21:39:00,29.6,25.1,30.02,WSW,257,2.3,3.5,83,0.00,CLR,,0.04,WeatherDisplay:10.37,2013-02-13 02:39:00,
2013-02-12 21:40:00,29.6,25.1,30.02,West,259,3.1,4.0,83,0.00,CLR,,0.04,WeatherDisplay:10.37,2013-02-13 02:40:00,
2013-02-12 21:42:00,29.6,25.1,30.02,West,261,2.9,4.6,83,0.00,CLR,,0.04,WeatherDisplay:10.37,2013-02-13 02:42:00,
2013-02-12 21:44:00,29.6,25.1,30.02,WSW,257,2.5,6.0,83,0.00,CLR,,0.04,WeatherDisplay:10.37,2013-02-13 02:44:00,
2013-02-12 21:45:00,29.6,25.1,30.02,West,265,4.1,5.8,83,0.00,CLR,,0.04,WeatherDisplay:10.37,2013-02-13 02:45:00,
2013-02-12 21:47:00,29.6,25.1,30.02,West,261,4.0,4.6,83,0.00,CLR,,0.04,WeatherDisplay:10.37,2013-02-13 02:47:00,
2013-02-12 21:49:00,29.6,25.1,30.02,WNW,290,2.3,3.5,83,0.00,CLR,,0.04,WeatherDisplay:10.37,2013-02-13 02:49:00,
2013-02-12 21:50:00,29.6,25.1,30.02,West,281,1.5,3.5,83,0.00,CLR,,0.04,WeatherDisplay:10.37,2013-02-13 02:50:00,
2013-02-12 21:52:00,29.6,25.1,30.02,WNW,287,1.2,3.5,83,0.00,CLR,,0.04,WeatherDisplay:10.37,2013-02-13 02:52:00,
2013-02-12 21:54:00,29.6,25.1,30.02,WNW,294,1.3,3.5,83,0.00,CLR,,0.04,WeatherDisplay:10.37,2013-02-13 02:54:00,
2013-02-12 21:55:00,29.6,25.1,30.02,West,281,2.3,3.5,83,0.00,CLR,,0.04,WeatherDisplay:10.37,2013-02-13 02:55:00,
2013-02-12 21:56:00,29.6,25.1,30.02,NW,314,2.8,3.5,83,0.00,CLR,,0.04,WeatherDisplay:10.37,2013-02-13 02:56:00,
2013-02-12 21:57:00,29.6,25.1,30.02,NW,315,1.7,3.5,83,0.00,CLR,,0.04,WeatherDisplay:10.37,2013-02-13 02:57:00,
2013-02-12 21:59:00,29.6,24.8,30.02,NW,311,1.1,3.5,82,0.00,CLR,,0.04,WeatherDisplay:10.37,2013-02-13 02:59:00,
2013-02-12 22:00:00,29.5,25.0,30.02,WNW,300,1.1,2.3,83,0.00,CLR,,0.04,WeatherDisplay:10.37,2013-02-13 03:00:00,
2013-02-12 22:01:00,29.5,25.0,30.02,WNW,302,2.5,3.0,83,0.00,CLR,,0.04,WeatherDisplay:10.37,2013-02-13 03:01:00,
2013-02-12 22:02:00,29.5,25.0,30.02,NW,315,2.1,4.6,83,0.00,CLR,,0.04,WeatherDisplay:10.37,2013-02-13 03:02:00,
2013-02-12 22:04:00,29.4,24.6,30.02,WNW,284,2.1,3.5,82,0.00,CLR,,0.04,WeatherDisplay:10.37,2013-02-13 03:04:00,
2013-02-12 22:06:00,29.4,24.6,30.02,WNW,302,2.1,3.5,82,0.00,CLR,,0.04,WeatherDisplay:10.37,2013-02-13 03:06:00,
2013-02-12 22:07:00,29.4,24.9,30.02,WNW,294,2.2,3.5,83,0.00,CLR,,0.04,WeatherDisplay:10.37,2013-02-13 03:07:00,
2013-02-12 22:09:00,29.3,24.8,30.02,NW,304,0.2,2.3,83,0.00,CLR,,0.04,WeatherDisplay:10.37,2013-02-13 03:09:00,
2013-02-12 22:11:00,29.3,24.8,30.02,WNW,301,2.4,3.5,83,0.00,CLR,,0.04,WeatherDisplay:10.37,2013-02-13 03:11:00,
2013-02-12 22:12:00,29.3,24.5,30.02,WNW,301,0.5,3.5,82,0.00,CLR,,0.04,WeatherDisplay:10.37,2013-02-13 03:12:00,
2013-02-12 22:14:00,29.3,24.8,30.02,WNW,291,2.4,4.0,83,0.00,CLR,,0.04,WeatherDisplay:10.37,2013-02-13 03:14:00,
2013-02-12 22:16:00,29.3,24.8,30.01,WNW,294,2.3,3.5,83,0.00,CLR,,0.04,WeatherDisplay:10.37,2013-02-13 03:16:00,
2013-02-12 22:17:00,29.3,25.1,30.02,WNW,294,0.8,3.5,84,0.00,CLR,,0.04,WeatherDisplay:10.37,2013-02-13 03:17:00,
2013-02-12 22:19:00,29.3,24.8,30.02,NW,310,1.9,3.5,83,0.00,CLR,,0.04,WeatherDisplay:10.37,2013-02-13 03:19:00,
2013-02-12 22:21:00,29.3,25.1,30.02,WNW,284,1.1,2.3,84,0.00,CLR,,0.04,WeatherDisplay:10.37,2013-02-13 03:21:00,
2013-02-12 22:22:00,29.3,24.8,30.02,West,279,0.6,3.5,83,0.00,CLR,,0.04,WeatherDisplay:10.37,2013-02-13 03:22:00,
2013-02-12 22:23:00,29.3,24.8,30.02,West,279,0.3,3.5,83,0.00,CLR,,0.04,WeatherDisplay:10.37,2013-02-13 03:23:00,
2013-02-12 22:24:00,29.3,24.8,30.02,West,281,0.6,2.3,83,0.00,CLR,,0.04,WeatherDisplay:10.37,2013-02-13 03:24:00,
2013-02-12 22:26:00,29.3,24.8,30.02,NW,305,1.5,3.5,83,0.00,CLR,,0.04,WeatherDisplay:10.37,2013-02-13 03:26:00,
2013-02-12 22:27:00,29.3,24.8,30.02,WNW,295,3.3,3.5,83,0.00,CLR,,0.04,WeatherDisplay:10.37,2013-02-13 03:27:00,
2013-02-12 22:28:00,29.3,24.8,30.02,WNW,283,3.1,4.6,83,0.00,CLR,,0.04,WeatherDisplay:10.37,2013-02-13 03:28:00,
2013-02-12 22:29:00,29.3,24.8,30.01,WNW,286,0.2,3.5,83,0.00,CLR,,0.04,WeatherDisplay:10.37,2013-02-13 03:29:00,
2013-02-12 22:31:00,29.2,24.7,30.01,NW,310,1.6,2.3,83,0.00,CLR,,0.04,WeatherDisplay:10.37,2013-02-13 03:31:00,
2013-02-12 22:33:00,29.2,24.7,30.01,WNW,303,2.6,3.5,83,0.00,CLR,,0.04,WeatherDisplay:10.37,2013-02-13 03:33:00,
2013-02-12 22:34:00,29.2,24.7,30.01,WNW,303,0.6,3.5,83,0.00,CLR,,0.04,WeatherDisplay:10.37,2013-02-13 03:34:00,
2013-02-12 22:37:00,29.2,24.7,30.01,NW,308,0.2,2.3,83,0.00,CLR,,0.04,WeatherDisplay:10.37,2013-02-13 03:37:00,
2013-02-12 22:38:00,29.2,24.7,30.01,NW,308,0.0,1.1,83,0.00,CLR,,0.04,WeatherDisplay:10.37,2013-02-13 03:38:00,
2013-02-12 22:39:00,29.2,24.7,30.01,NW,315,1.9,2.0,83,0.00,CLR,,0.04,WeatherDisplay:10.37,2013-02-13 03:39:00,
2013-02-12 22:42:00,29.1,24.9,30.01,WNW,294,1.6,2.3,84,0.00,CLR,,0.04,WeatherDisplay:10.37,2013-02-13 03:42:00,
2013-02-12 22:43:00,29.2,25.0,30.01,WNW,290,1.4,3.5,84,0.00,CLR,,0.04,WeatherDisplay:10.37,2013-02-13 03:43:00,
2013-02-12 22:44:00,29.2,25.0,30.02,WSW,257,2.9,4.0,84,0.00,CLR,,0.04,WeatherDisplay:10.37,2013-02-13 03:44:00,
2013-02-12 22:47:00,29.1,24.9,30.02,SW,218,3.7,4.6,84,0.00,CLR,,0.04,WeatherDisplay:10.37,2013-02-13 03:47:00,
2013-02-12 22:48:00,29.1,24.6,30.01,SW,221,3.7,4.6,83,0.00,CLR,,0.04,WeatherDisplay:10.37,2013-02-13 03:48:00,
2013-02-12 22:49:00,29.1,24.6,30.01,SSW,205,2.3,3.5,83,0.00,CLR,,0.04,WeatherDisplay:10.37,2013-02-13 03:49:00,
2013-02-12 22:52:00,29.1,24.9,30.01,West,277,0.9,2.3,84,0.00,CLR,,0.04,WeatherDisplay:10.37,2013-02-13 03:52:00,
2013-02-12 22:53:00,29.1,24.9,30.01,WNW,300,2.4,3.0,84,0.00,CLR,,0.04,WeatherDisplay:10.37,2013-02-13 03:53:00,
2013-02-12 22:54:00,29.1,24.9,30.01,WNW,300,2.5,3.5,84,0.00,CLR,,0.04,WeatherDisplay:10.37,2013-02-13 03:54:00,
2013-02-12 22:57:00,29.1,24.6,30.01,WSW,238,2.2,2.3,83,0.00,CLR,,0.04,WeatherDisplay:10.37,2013-02-13 03:57:00,
2013-02-12 22:58:00,29.0,24.8,30.01,WSW,237,2.7,4.0,84,0.00,CLR,,0.04,WeatherDisplay:10.37,2013-02-13 03:58:00,
2013-02-12 22:59:00,29.0,24.8,30.01,SW,228,3.2,4.0,84,0.00,CLR,,0.04,WeatherDisplay:10.37,2013-02-13 03:59:00,
2013-02-12 23:00:00,29.0,24.8,30.01,SW,236,2.9,4.6,84,0.00,CLR,,0.04,WeatherDisplay:10.37,2013-02-13 04:00:00,
2013-02-12 23:03:00,29.0,24.8,30.01,SW,233,2.2,3.5,84,0.00,CLR,,0.04,WeatherDisplay:10.37,2013-02-13 04:03:00,
2013-02-12 23:04:00,29.0,24.8,30.01,WSW,245,2.5,4.0,84,0.00,CLR,,0.04,WeatherDisplay:10.37,2013-02-13 04:04:00,
2013-02-12 23:05:00,28.9,24.7,30.01,WSW,242,2.0,3.5,84,0.00,CLR,,0.04,WeatherDisplay:10.37,2013-02-13 04:05:00,
2013-02-12 23:08:00,28.9,24.7,30.01,WSW,245,2.8,3.5,84,0.00,CLR,,0.04,WeatherDisplay:10.37,2013-02-13 04:08:00,
2013-02-12 23:09:00,28.9,24.7,30.01,WSW,254,2.3,4.0,84,0.00,CLR,,0.04,WeatherDisplay:10.37,2013-02-13 04:09:00,
2013-02-12 23:10:00,28.9,24.7,30.01,WSW,254,2.0,3.5,84,0.00,CLR,,0.04,WeatherDisplay:10.37,2013-02-13 04:10:00,
2013-02-12 23:13:00,29.0,25.1,30.01,West,264,0.5,2.3,85,0.00,CLR,,0.04,WeatherDisplay:10.37,2013-02-13 04:13:00,
2013-02-12 23:14:00,29.0,24.8,30.01,West,264,0.0,0.0,84,0.00,CLR,,0.04,WeatherDisplay:10.37,2013-02-13 04:14:00,
2013-02-12 23:15:00,28.9,24.7,30.01,West,264,0.0,0.0,84,0.00,CLR,,0.04,WeatherDisplay:10.37,2013-02-13 04:15:00,
2013-02-12 23:18:00,29.0,24.8,30.01,West,278,1.3,3.5,84,0.00,CLR,,0.04,WeatherDisplay:10.37,2013-02-13 04:18:00,
2013-02-12 23:19:00,29.0,24.8,30.01,WNW,283,1.3,3.5,84,0.00,CLR,,0.04,WeatherDisplay:10.37,2013-02-13 04:19:00,
2013-02-12 23:20:00,28.9,24.7,30.01,WNW,283,1.2,2.3,84,0.00,CLR,,0.04,WeatherDisplay:10.37,2013-02-13 04:20:00,
2013-02-12 23:23:00,29.0,24.8,30.01,West,281,2.2,3.5,84,0.00,CLR,,0.04,WeatherDisplay:10.37,2013-02-13 04:23:00,
2013-02-12 23:24:00,29.0,24.8,30.01,West,277,1.6,3.5,84,0.00,CLR,,0.04,WeatherDisplay:10.37,2013-02-13 04:24:00,
2013-02-12 23:25:00,29.0,24.8,30.01,West,277,0.5,2.3,84,0.00,CLR,,0.04,WeatherDisplay:10.37,2013-02-13 04:25:00,
2013-02-12 23:28:00,29.0,24.8,30.01,West,281,0.0,1.1,84,0.00,CLR,,0.04,WeatherDisplay:10.37,2013-02-13 04:28:00,
2013-02-12 23:29:00,29.0,25.1,30.01,West,281,0.1,1.1,85,0.00,CLR,,0.04,WeatherDisplay:10.37,2013-02-13 04:29:00,
2013-02-12 23:30:00,29.0,24.8,30.01,West,281,0.2,1.1,84,0.00,CLR,,0.04,WeatherDisplay:10.37,2013-02-13 04:30:00,
2013-02-12 23:33:00,29.0,25.1,30.01,WSW,251,3.1,5.0,85,0.00,CLR,,0.04,WeatherDisplay:10.37,2013-02-13 04:33:00,
2013-02-12 23:35:00,29.0,25.1,30.01,WNW,292,2.9,4.6,85,0.00,CLR,,0.04,WeatherDisplay:10.37,2013-02-13 04:35:00,
2013-02-12 23:38:00,29.0,25.1,30.01,WNW,292,1.3,3.0,85,0.00,CLR,,0.04,WeatherDisplay:10.37,2013-02-13 04:38:00,
2013-02-12 23:40:00,29.1,25.2,30.01,West,271,2.1,3.5,85,0.00,CLR,,0.04,WeatherDisplay:10.37,2013-02-13 04:40:00,
2013-02-12 23:43:00,29.0,24.8,30.01,WSW,257,4.6,6.9,84,0.00,CLR,,0.04,WeatherDisplay:10.37,2013-02-13 04:43:00,
2013-02-12 23:45:00,29.0,24.8,30.01,SW,220,3.2,4.6,84,0.00,CLR,,0.04,WeatherDisplay:10.37,2013-02-13 04:45:00,
2013-02-12 23:48:00,29.0,24.8,30.01,WSW,243,3.4,4.6,84,0.00,CLR,,0.04,WeatherDisplay:10.37,2013-02-13 04:48:00,
2013-02-12 23:50:00,29.0,24.8,30.01,WSW,244,3.1,3.5,84,0.00,CLR,,0.04,WeatherDisplay:10.37,2013-02-13 04:50:00,
2013-02-12 23:53:00,29.0,24.8,30.01,WSW,245,3.4,4.6,84,0.00,CLR,,0.04,WeatherDisplay:10.37,2013-02-13 04:53:00,
2013-02-12 23:55:00,28.9,25.0,30.01,West,267,3.6,6.9,85,0.00,CLR,,0.04,WeatherDisplay:10.37,2013-02-13 04:55:00,
2013-02-12 23:56:00,29.0,25.1,30.01,WSW,257,3.8,7.0,85,0.00,CLR,,0.04,WeatherDisplay:10.37,2013-02-13 04:56:00,
2013-02-12 23:59:00,29.0,24.8,30.01,West,260,4.5,6.0,84,0.00,CLR,,0.04,WeatherDisplay:10.37,2013-02-13 04:59:00,